GEFSCGP_prec_meanprecacc_006.txt.gz
Total_Precipitation_Accumulation
0.01 0.01 0.01 0.00 0.00 0.01 0.01 0.00 0.00 0.00 0.00 0.00 0.00 0.00 0.00 0.00 0.00 0.00 0.00 0.00 0.00 0.00 0.00 0.00 0.00 0.00 0.01 0.05 0.09 0.14 0.25 0.29 0.14 0.08 0.07 0.05 0.02 0.01 0.00 0.00 0.00 0.00 0.01 0.01
0.00 0.01 0.01 0.01 0.00 0.00 0.00 0.00 0.00 0.00 0.00 0.00 0.00 0.00 0.00 0.00 0.00 0.00 0.00 0.00 0.00 0.00 0.00 0.00 0.00 0.01 0.03 0.12 0.20 0.21 0.27 0.33 0.24 0.13 0.08 0.05 0.02 0.01 0.01 0.00 0.00 0.00 0.01 0.08
0.00 0.00 0.00 0.00 0.00 0.00 0.00 0.00 0.00 0.00 0.00 0.00 0.00 0.00 0.00 0.00 0.00 0.00 0.00 0.00 0.00 0.00 0.00 0.00 0.00 0.01 0.02 0.07 0.12 0.17 0.18 0.21 0.15 0.08 0.07 0.10 0.08 0.06 0.04 0.00 0.00 0.00 0.00 0.05
0.00 0.00 0.00 0.00 0.00 0.00 0.00 0.00 0.00 0.00 0.00 0.00 0.00 0.00 0.00 0.00 0.00 0.00 0.00 0.00 0.00 0.00 0.00 0.00 0.00 0.00 0.01 0.03 0.05 0.07 0.08 0.06 0.04 0.04 0.09 0.17 0.23 0.17 0.06 0.00 0.00 0.01 0.01 0.04
0.00 0.00 0.00 0.00 0.00 0.00 0.00 0.00 0.00 0.00 0.00 0.00 0.00 0.00 0.00 0.00 0.00 0.00 0.00 0.00 0.00 0.00 0.00 0.00 0.00 0.00 0.00 0.01 0.01 0.02 0.03 0.01 0.01 0.02 0.05 0.11 0.11 0.11 0.09 0.04 0.01 0.01 0.01 0.02
0.00 0.00 0.00 0.00 0.00 0.00 0.00 0.00 0.00 0.00 0.00 0.00 0.00 0.00 0.00 0.00 0.00 0.00 0.00 0.00 0.00 0.00 0.00 0.00 0.00 0.00 0.00 0.01 0.01 0.01 0.02 0.02 0.01 0.01 0.02 0.03 0.06 0.14 0.36 0.31 0.17 0.17 0.15 0.04
0.00 0.00 0.00 0.00 0.00 0.00 0.00 0.00 0.00 0.00 0.00 0.00 0.00 0.00 0.00 0.00 0.00 0.00 0.00 0.00 0.00 0.00 0.00 0.00 0.00 0.00 0.00 0.00 0.01 0.01 0.02 0.03 0.03 0.03 0.01 0.02 0.05 0.08 0.29 0.37 0.24 0.20 0.20 0.15
0.00 0.00 0.00 0.00 0.00 0.00 0.00 0.00 0.00 0.00 0.00 0.00 0.00 0.00 0.00 0.00 0.00 0.00 0.00 0.00 0.00 0.00 0.00 0.00 0.00 0.00 0.00 0.01 0.01 0.01 0.02 0.06 0.07 0.03 0.01 0.01 0.03 0.03 0.06 0.10 0.10 0.08 0.07 0.07
0.00 0.00 0.00 0.00 0.00 0.00 0.00 0.00 0.00 0.00 0.00 0.00 0.00 0.00 0.00 0.00 0.00 0.00 0.00 0.00 0.00 0.00 0.00 0.00 0.00 0.00 0.01 0.01 0.01 0.01 0.04 0.11 0.13 0.11 0.10 0.06 0.04 0.09 0.11 0.06 0.06 0.08 0.08 0.07
0.00 0.00 0.00 0.00 0.00 0.00 0.00 0.00 0.00 0.00 0.00 0.00 0.00 0.00 0.00 0.00 0.00 0.00 0.00 0.00 0.00 0.00 0.00 0.00 0.00 0.00 0.00 0.00 0.01 0.00 0.02 0.08 0.20 0.31 0.30 0.23 0.20 0.23 0.33 0.18 0.07 0.04 0.03 0.04
0.00 0.00 0.00 0.00 0.00 0.00 0.00 0.00 0.00 0.00 0.00 0.01 0.02 0.01 0.00 0.00 0.00 0.00 0.00 0.00 0.00 0.00 0.00 0.00 0.00 0.00 0.00 0.00 0.00 0.00 0.01 0.04 0.08 0.12 0.14 0.18 0.26 0.31 0.36 0.28 0.19 0.06 0.02 0.01
0.01 0.00 0.00 0.00 0.00 0.00 0.00 0.00 0.00 0.02 0.02 0.04 0.08 0.02 0.00 0.00 0.00 0.00 0.00 0.00 0.00 0.00 0.00 0.00 0.00 0.00 0.00 0.00 0.00 0.00 0.01 0.02 0.04 0.04 0.05 0.08 0.15 0.24 0.23 0.13 0.07 0.02 0.01 0.01
0.02 0.04 0.07 0.06 0.04 0.00 0.00 0.00 0.00 0.00 0.00 0.02 0.06 0.02 0.00 0.00 0.00 0.00 0.00 0.00 0.00 0.00 0.00 0.00 0.00 0.00 0.00 0.00 0.00 0.00 0.00 0.00 0.01 0.01 0.04 0.05 0.05 0.08 0.07 0.03 0.01 0.00 0.00 0.00
0.02 0.01 0.06 0.06 0.03 0.01 0.01 0.01 0.01 0.00 0.00 0.01 0.01 0.00 0.00 0.00 0.00 0.00 0.00 0.00 0.00 0.00 0.00 0.00 0.00 0.00 0.00 0.00 0.00 0.00 0.00 0.01 0.02 0.02 0.03 0.03 0.03 0.02 0.01 0.01 0.00 0.00 0.00 0.01
0.00 0.00 0.00 0.00 0.00 0.00 0.00 0.01 0.01 0.01 0.00 0.00 0.00 0.00 0.00 0.00 0.00 0.00 0.00 0.00 0.00 0.00 0.00 0.00 0.00 0.00 0.00 0.00 0.00 0.00 0.00 0.01 0.01 0.01 0.01 0.01 0.01 0.01 0.00 0.00 0.00 0.00 0.00 0.01
0.01 0.01 0.01 0.01 0.01 0.01 0.00 0.00 0.00 0.00 0.00 0.00 0.00 0.00 0.00 0.00 0.00 0.00 0.00 0.00 0.00 0.00 0.00 0.00 0.00 0.00 0.00 0.00 0.00 0.00 0.01 0.01 0.01 0.01 0.01 0.01 0.01 0.00 0.00 0.00 0.00 0.00 0.01 0.01
0.05 0.10 0.13 0.10 0.06 0.03 0.01 0.00 0.00 0.00 0.00 0.00 0.00 0.00 0.00 0.00 0.00 0.00 0.00 0.00 0.00 0.00 0.00 0.00 0.00 0.00 0.00 0.00 0.01 0.01 0.00 0.01 0.01 0.01 0.01 0.01 0.00 0.00 0.00 0.00 0.00 0.00 0.02 0.03
0.06 0.13 0.16 0.12 0.10 0.06 0.01 0.00 0.00 0.00 0.00 0.00 0.00 0.00 0.00 0.00 0.00 0.00 0.00 0.00 0.00 0.00 0.00 0.00 0.00 0.00 0.00 0.00 0.00 0.01 0.01 0.00 0.01 0.02 0.01 0.01 0.00 0.00 0.00 0.00 0.00 0.00 0.01 0.02
0.05 0.11 0.16 0.12 0.07 0.03 0.00 0.00 0.00 0.00 0.00 0.00 0.00 0.00 0.00 0.00 0.00 0.00 0.00 0.00 0.00 0.00 0.00 0.00 0.00 0.00 0.00 0.00 0.00 0.00 0.01 0.01 0.02 0.03 0.02 0.02 0.02 0.02 0.02 0.01 0.01 0.00 0.00 0.01
0.02 0.07 0.17 0.13 0.08 0.03 0.00 0.00 0.00 0.00 0.00 0.00 0.00 0.00 0.00 0.00 0.00 0.00 0.00 0.00 0.00 0.00 0.00 0.00 0.00 0.00 0.00 0.00 0.00 0.01 0.02 0.02 0.04 0.05 0.05 0.05 0.04 0.04 0.03 0.02 0.01 0.01 0.01 0.01
0.03 0.08 0.13 0.12 0.08 0.02 0.00 0.00 0.00 0.00 0.00 0.00 0.00 0.00 0.00 0.00 0.00 0.00 0.00 0.00 0.00 0.00 0.00 0.00 0.00 0.00 0.00 0.00 0.00 0.01 0.04 0.05 0.05 0.04 0.04 0.04 0.04 0.05 0.04 0.02 0.02 0.04 0.05 0.04
0.02 0.04 0.05 0.02 0.02 0.01 0.00 0.00 0.00 0.00 0.00 0.00 0.00 0.00 0.00 0.00 0.00 0.00 0.00 0.00 0.00 0.00 0.00 0.00 0.00 0.00 0.00 0.00 0.00 0.00 0.02 0.03 0.03 0.03 0.04 0.05 0.07 0.07 0.04 0.04 0.05 0.06 0.07 0.07
0.00 0.00 0.00 0.00 0.00 0.00 0.00 0.00 0.00 0.00 0.00 0.00 0.00 0.00 0.00 0.00 0.00 0.00 0.00 0.00 0.00 0.00 0.00 0.00 0.00 0.00 0.00 0.00 0.00 0.00 0.00 0.00 0.00 0.02 0.04 0.06 0.07 0.06 0.04 0.05 0.10 0.12 0.12 0.08
0.00 0.00 0.01 0.01 0.00 0.00 0.00 0.00 0.00 0.00 0.00 0.00 0.00 0.00 0.00 0.00 0.00 0.00 0.00 0.00 0.00 0.00 0.00 0.00 0.00 0.00 0.00 0.00 0.00 0.00 0.00 0.00 0.00 0.01 0.02 0.04 0.04 0.02 0.02 0.05 0.09 0.12 0.14 0.14
0.00 0.00 0.00 0.00 0.00 0.00 0.00 0.00 0.00 0.00 0.00 0.00 0.00 0.00 0.00 0.00 0.00 0.00 0.00 0.00 0.00 0.00 0.00 0.00 0.00 0.00 0.00 0.00 0.00 0.00 0.00 0.00 0.01 0.01 0.01 0.01 0.02 0.02 0.01 0.04 0.08 0.10 0.13 0.12
0.01 0.00 0.00 0.00 0.00 0.00 0.00 0.00 0.00 0.00 0.00 0.00 0.00 0.00 0.00 0.00 0.00 0.00 0.00 0.00 0.00 0.00 0.00 0.00 0.00 0.00 0.00 0.00 0.00 0.01 0.03 0.01 0.04 0.06 0.02 0.02 0.02 0.04 0.04 0.04 0.04 0.02 0.04 0.02

GEFSCGP_prec_meanprecacc_012.txt.gz
Total_Precipitation_Accumulation
0.03 0.06 0.05 0.02 0.02 0.05 0.04 0.02 0.01 0.00 0.00 0.00 0.00 0.00 0.00 0.00 0.00 0.00 0.00 0.00 0.00 0.00 0.00 0.00 0.00 0.01 0.04 0.13 0.20 0.32 0.56 0.85 0.88 0.58 0.36 0.26 0.18 0.12 0.07 0.03 0.05 0.10 0.10 0.09
0.01 0.02 0.02 0.02 0.02 0.02 0.03 0.01 0.00 0.00 0.00 0.00 0.00 0.00 0.00 0.00 0.00 0.00 0.00 0.00 0.00 0.00 0.00 0.00 0.00 0.02 0.07 0.19 0.32 0.42 0.59 0.84 0.84 0.60 0.38 0.28 0.21 0.14 0.10 0.07 0.07 0.12 0.11 0.17
0.01 0.01 0.01 0.02 0.03 0.03 0.03 0.02 0.00 0.00 0.00 0.00 0.00 0.00 0.00 0.00 0.00 0.00 0.00 0.00 0.00 0.00 0.00 0.00 0.00 0.01 0.04 0.13 0.23 0.34 0.42 0.52 0.52 0.43 0.31 0.28 0.22 0.17 0.17 0.12 0.11 0.13 0.12 0.17
0.00 0.00 0.00 0.01 0.01 0.02 0.01 0.01 0.00 0.00 0.00 0.00 0.00 0.00 0.00 0.00 0.00 0.00 0.00 0.00 0.00 0.00 0.00 0.00 0.00 0.00 0.02 0.05 0.11 0.19 0.25 0.28 0.28 0.23 0.23 0.29 0.32 0.30 0.23 0.15 0.13 0.18 0.20 0.21
0.00 0.00 0.00 0.00 0.00 0.00 0.00 0.00 0.00 0.00 0.00 0.00 0.00 0.00 0.00 0.00 0.00 0.00 0.00 0.00 0.00 0.00 0.00 0.00 0.00 0.00 0.00 0.01 0.02 0.05 0.08 0.08 0.09 0.10 0.13 0.19 0.18 0.23 0.30 0.21 0.17 0.23 0.26 0.22
0.00 0.00 0.00 0.00 0.00 0.00 0.00 0.00 0.00 0.00 0.00 0.00 0.00 0.00 0.00 0.00 0.00 0.00 0.00 0.00 0.00 0.00 0.00 0.00 0.00 0.00 0.00 0.01 0.01 0.02 0.03 0.03 0.02 0.03 0.05 0.07 0.10 0.21 0.50 0.52 0.38 0.39 0.42 0.28
0.00 0.00 0.00 0.00 0.00 0.00 0.00 0.00 0.00 0.00 0.00 0.00 0.00 0.00 0.00 0.00 0.00 0.00 0.00 0.00 0.00 0.00 0.00 0.00 0.00 0.00 0.00 0.00 0.01 0.01 0.02 0.03 0.03 0.03 0.03 0.05 0.09 0.14 0.42 0.64 0.54 0.43 0.46 0.42
0.00 0.00 0.00 0.00 0.00 0.00 0.00 0.00 0.00 0.00 0.01 0.00 0.00 0.00 0.00 0.00 0.00 0.00 0.00 0.00 0.00 0.00 0.00 0.00 0.00 0.00 0.01 0.01 0.01 0.02 0.03 0.06 0.07 0.04 0.02 0.04 0.06 0.08 0.15 0.29 0.35 0.34 0.29 0.32
0.00 0.00 0.00 0.00 0.00 0.00 0.00 0.00 0.00 0.00 0.00 0.00 0.00 0.00 0.00 0.00 0.00 0.00 0.00 0.00 0.00 0.00 0.00 0.00 0.00 0.00 0.01 0.02 0.02 0.03 0.05 0.12 0.14 0.13 0.11 0.08 0.07 0.13 0.20 0.20 0.25 0.36 0.35 0.30
0.00 0.00 0.00 0.00 0.00 0.00 0.00 0.00 0.00 0.00 0.00 0.00 0.00 0.00 0.00 0.00 0.00 0.00 0.00 0.00 0.00 0.00 0.00 0.00 0.00 0.00 0.01 0.02 0.03 0.02 0.04 0.10 0.23 0.34 0.31 0.24 0.23 0.27 0.49 0.54 0.33 0.30 0.38 0.36
0.01 0.00 0.00 0.00 0.01 0.01 0.00 0.00 0.00 0.00 0.00 0.01 0.02 0.01 0.00 0.01 0.00 0.00 0.00 0.00 0.00 0.00 0.00 0.00 0.00 0.01 0.02 0.02 0.01 0.01 0.02 0.07 0.14 0.17 0.19 0.22 0.30 0.38 0.59 0.78 0.66 0.45 0.35 0.30
0.02 0.01 0.01 0.01 0.02 0.02 0.02 0.02 0.02 0.02 0.02 0.04 0.09 0.03 0.00 0.01 0.01 0.01 0.00 0.00 0.00 0.00 0.00 0.00 0.00 0.01 0.01 0.01 0.01 0.00 0.01 0.05 0.11 0.12 0.09 0.11 0.20 0.32 0.36 0.38 0.43 0.35 0.21 0.14
0.05 0.08 0.11 0.07 0.06 0.03 0.04 0.05 0.05 0.05 0.03 0.04 0.07 0.03 0.01 0.02 0.02 0.01 0.01 0.00 0.00 0.00 0.00 0.00 0.00 0.00 0.00 0.00 0.00 0.00 0.00 0.01 0.02 0.04 0.06 0.07 0.08 0.12 0.12 0.09 0.08 0.10 0.10 0.07
0.08 0.10 0.14 0.11 0.06 0.04 0.06 0.07 0.10 0.14 0.14 0.10 0.06 0.03 0.03 0.03 0.02 0.01 0.01 0.00 0.00 0.00 0.00 0.00 0.00 0.00 0.00 0.00 0.00 0.00 0.00 0.01 0.02 0.02 0.04 0.05 0.05 0.04 0.04 0.03 0.02 0.03 0.03 0.03
0.09 0.09 0.06 0.03 0.02 0.02 0.03 0.03 0.06 0.09 0.10 0.11 0.05 0.03 0.02 0.02 0.02 0.01 0.00 0.00 0.00 0.00 0.00 0.00 0.00 0.00 0.00 0.01 0.01 0.01 0.02 0.03 0.03 0.02 0.02 0.03 0.04 0.04 0.03 0.03 0.02 0.02 0.01 0.02
0.10 0.10 0.07 0.04 0.02 0.02 0.01 0.01 0.01 0.02 0.03 0.03 0.03 0.01 0.01 0.02 0.03 0.02 0.01 0.00 0.00 0.00 0.00 0.00 0.00 0.00 0.01 0.02 0.03 0.04 0.06 0.10 0.09 0.04 0.04 0.06 0.06 0.04 0.03 0.02 0.02 0.01 0.01 0.02
0.10 0.17 0.20 0.13 0.07 0.04 0.01 0.00 0.01 0.01 0.01 0.02 0.02 0.01 0.02 0.04 0.04 0.03 0.01 0.00 0.00 0.00 0.00 0.00 0.00 0.01 0.02 0.04 0.06 0.07 0.09 0.14 0.11 0.06 0.05 0.06 0.05 0.03 0.03 0.02 0.01 0.01 0.02 0.03
0.09 0.16 0.20 0.14 0.11 0.07 0.01 0.01 0.01 0.01 0.01 0.03 0.02 0.02 0.04 0.06 0.04 0.02 0.01 0.00 0.00 0.00 0.00 0.00 0.00 0.00 0.01 0.02 0.05 0.08 0.08 0.08 0.08 0.06 0.04 0.06 0.06 0.05 0.04 0.02 0.01 0.00 0.01 0.02
0.08 0.15 0.20 0.15 0.10 0.04 0.00 0.00 0.01 0.01 0.01 0.01 0.02 0.03 0.05 0.04 0.01 0.00 0.00 0.00 0.00 0.00 0.00 0.00 0.00 0.00 0.00 0.00 0.01 0.03 0.05 0.06 0.07 0.08 0.07 0.09 0.10 0.09 0.07 0.04 0.03 0.02 0.01 0.01
0.08 0.13 0.24 0.23 0.24 0.11 0.01 0.00 0.00 0.00 0.00 0.00 0.01 0.01 0.01 0.01 0.00 0.00 0.00 0.00 0.00 0.00 0.00 0.00 0.00 0.00 0.00 0.00 0.00 0.01 0.03 0.05 0.08 0.11 0.13 0.16 0.16 0.16 0.13 0.10 0.08 0.07 0.05 0.02
0.12 0.14 0.19 0.23 0.31 0.13 0.00 0.00 0.00 0.00 0.00 0.00 0.00 0.00 0.00 0.00 0.00 0.00 0.00 0.00 0.00 0.00 0.00 0.00 0.00 0.00 0.00 0.00 0.00 0.02 0.04 0.06 0.07 0.08 0.12 0.17 0.20 0.23 0.24 0.22 0.19 0.18 0.13 0.07
0.14 0.13 0.12 0.13 0.17 0.08 0.00 0.00 0.00 0.00 0.00 0.00 0.00 0.00 0.00 0.00 0.00 0.00 0.00 0.00 0.00 0.00 0.00 0.00 0.00 0.00 0.00 0.00 0.00 0.00 0.02 0.03 0.03 0.05 0.09 0.15 0.22 0.26 0.29 0.30 0.25 0.19 0.15 0.10
0.12 0.11 0.08 0.12 0.15 0.03 0.01 0.00 0.00 0.00 0.00 0.00 0.00 0.00 0.00 0.00 0.00 0.00 0.00 0.00 0.00 0.00 0.00 0.00 0.00 0.00 0.00 0.00 0.00 0.00 0.00 0.00 0.00 0.02 0.05 0.10 0.14 0.17 0.18 0.18 0.20 0.19 0.17 0.10
0.09 0.09 0.10 0.15 0.12 0.03 0.01 0.00 0.00 0.00 0.00 0.00 0.00 0.00 0.00 0.00 0.00 0.00 0.00 0.00 0.00 0.00 0.00 0.00 0.00 0.00 0.00 0.00 0.00 0.00 0.00 0.00 0.00 0.01 0.02 0.04 0.05 0.05 0.06 0.10 0.14 0.15 0.16 0.15
0.09 0.11 0.14 0.17 0.14 0.06 0.01 0.00 0.00 0.00 0.00 0.00 0.00 0.00 0.00 0.00 0.00 0.00 0.00 0.00 0.00 0.00 0.00 0.00 0.00 0.00 0.00 0.00 0.00 0.00 0.00 0.00 0.01 0.01 0.01 0.01 0.03 0.04 0.05 0.08 0.11 0.12 0.15 0.14
0.07 0.10 0.14 0.18 0.13 0.07 0.02 0.01 0.01 0.01 0.00 0.00 0.00 0.00 0.00 0.00 0.00 0.00 0.00 0.00 0.00 0.00 0.00 0.00 0.00 0.00 0.00 0.00 0.00 0.01 0.03 0.01 0.04 0.06 0.02 0.02 0.02 0.04 0.06 0.07 0.06 0.04 0.05 0.03

GEFSCGP_prec_meanprecacc_018.txt.gz
Total_Precipitation_Accumulation
0.07 0.13 0.15 0.13 0.13 0.14 0.12 0.08 0.05 0.02 0.01 0.00 0.00 0.00 0.00 0.00 0.00 0.00 0.00 0.00 0.00 0.00 0.00 0.00 0.00 0.01 0.05 0.14 0.23 0.37 0.65 0.95 1.00 0.73 0.52 0.40 0.29 0.22 0.18 0.16 0.22 0.32 0.31 0.25
0.02 0.05 0.07 0.07 0.08 0.10 0.12 0.10 0.05 0.02 0.00 0.00 0.00 0.00 0.00 0.00 0.00 0.00 0.00 0.00 0.00 0.00 0.00 0.00 0.00 0.02 0.07 0.20 0.34 0.45 0.65 0.94 0.96 0.78 0.60 0.50 0.39 0.32 0.25 0.20 0.21 0.31 0.33 0.37
0.01 0.01 0.02 0.03 0.06 0.07 0.08 0.07 0.04 0.02 0.00 0.00 0.00 0.00 0.00 0.00 0.00 0.00 0.00 0.00 0.00 0.00 0.00 0.00 0.00 0.01 0.04 0.13 0.24 0.37 0.47 0.59 0.64 0.61 0.54 0.52 0.44 0.36 0.30 0.23 0.21 0.29 0.32 0.38
0.00 0.00 0.01 0.02 0.02 0.03 0.03 0.02 0.01 0.00 0.00 0.00 0.00 0.00 0.00 0.00 0.00 0.00 0.00 0.00 0.00 0.00 0.00 0.00 0.00 0.00 0.02 0.05 0.11 0.20 0.27 0.33 0.35 0.34 0.36 0.44 0.48 0.44 0.36 0.28 0.27 0.36 0.39 0.43
0.00 0.00 0.01 0.01 0.01 0.01 0.01 0.00 0.00 0.00 0.00 0.00 0.00 0.00 0.00 0.00 0.00 0.00 0.00 0.00 0.00 0.00 0.00 0.00 0.00 0.00 0.00 0.01 0.03 0.06 0.09 0.10 0.13 0.14 0.18 0.27 0.27 0.33 0.41 0.34 0.32 0.42 0.48 0.47
0.00 0.00 0.00 0.00 0.00 0.00 0.00 0.00 0.00 0.00 0.00 0.00 0.00 0.00 0.00 0.00 0.00 0.00 0.00 0.00 0.00 0.00 0.00 0.00 0.00 0.00 0.00 0.01 0.01 0.02 0.03 0.03 0.03 0.04 0.07 0.09 0.14 0.28 0.57 0.59 0.49 0.53 0.61 0.51
0.00 0.00 0.00 0.00 0.00 0.00 0.00 0.00 0.00 0.00 0.00 0.00 0.00 0.00 0.00 0.00 0.00 0.00 0.00 0.00 0.00 0.00 0.00 0.00 0.00 0.00 0.00 0.00 0.01 0.01 0.02 0.03 0.04 0.04 0.04 0.06 0.12 0.18 0.46 0.68 0.60 0.53 0.59 0.58
0.00 0.00 0.00 0.00 0.00 0.00 0.00 0.00 0.00 0.00 0.01 0.00 0.00 0.00 0.00 0.00 0.00 0.00 0.00 0.00 0.00 0.00 0.00 0.00 0.00 0.00 0.01 0.01 0.01 0.02 0.03 0.06 0.07 0.04 0.02 0.05 0.08 0.10 0.18 0.33 0.40 0.40 0.36 0.43
0.00 0.00 0.00 0.00 0.00 0.00 0.00 0.00 0.00 0.00 0.00 0.00 0.00 0.00 0.00 0.00 0.00 0.00 0.00 0.00 0.00 0.00 0.00 0.00 0.00 0.00 0.01 0.02 0.02 0.03 0.05 0.12 0.14 0.13 0.11 0.09 0.09 0.15 0.21 0.22 0.28 0.41 0.41 0.40
0.01 0.00 0.00 0.00 0.00 0.00 0.00 0.00 0.00 0.00 0.00 0.00 0.00 0.00 0.00 0.00 0.00 0.00 0.00 0.00 0.00 0.00 0.00 0.00 0.00 0.00 0.01 0.02 0.03 0.02 0.04 0.10 0.23 0.34 0.31 0.24 0.23 0.28 0.50 0.54 0.34 0.33 0.41 0.41
0.09 0.05 0.01 0.01 0.02 0.02 0.01 0.01 0.01 0.01 0.00 0.01 0.02 0.01 0.00 0.01 0.00 0.00 0.00 0.00 0.00 0.00 0.00 0.00 0.00 0.01 0.02 0.02 0.01 0.01 0.02 0.08 0.14 0.18 0.19 0.22 0.30 0.39 0.60 0.79 0.67 0.46 0.37 0.33
0.13 0.12 0.06 0.04 0.05 0.06 0.05 0.07 0.08 0.07 0.05 0.05 0.09 0.03 0.00 0.01 0.01 0.01 0.00 0.00 0.00 0.00 0.00 0.00 0.00 0.01 0.01 0.01 0.01 0.00 0.01 0.05 0.11 0.12 0.09 0.11 0.20 0.32 0.37 0.40 0.45 0.36 0.22 0.16
0.15 0.23 0.18 0.10 0.09 0.06 0.09 0.13 0.15 0.14 0.12 0.08 0.09 0.03 0.01 0.02 0.02 0.02 0.01 0.00 0.01 0.01 0.00 0.00 0.00 0.00 0.00 0.00 0.00 0.00 0.00 0.01 0.02 0.05 0.07 0.08 0.08 0.12 0.13 0.10 0.09 0.11 0.11 0.08
0.15 0.20 0.23 0.15 0.09 0.07 0.08 0.10 0.14 0.19 0.20 0.14 0.07 0.04 0.04 0.04 0.03 0.02 0.02 0.01 0.01 0.01 0.01 0.01 0.00 0.00 0.00 0.00 0.00 0.00 0.00 0.01 0.02 0.02 0.04 0.05 0.05 0.05 0.04 0.03 0.03 0.04 0.04 0.04
0.14 0.12 0.09 0.06 0.04 0.04 0.04 0.04 0.08 0.11 0.13 0.14 0.06 0.04 0.03 0.04 0.04 0.03 0.02 0.02 0.01 0.01 0.01 0.01 0.00 0.00 0.00 0.01 0.01 0.01 0.02 0.04 0.04 0.02 0.02 0.03 0.04 0.05 0.04 0.03 0.02 0.02 0.03 0.03
0.12 0.12 0.09 0.05 0.04 0.03 0.02 0.01 0.02 0.03 0.04 0.04 0.04 0.02 0.02 0.03 0.05 0.04 0.03 0.02 0.02 0.01 0.01 0.01 0.00 0.00 0.01 0.02 0.03 0.04 0.06 0.11 0.10 0.05 0.04 0.07 0.07 0.05 0.04 0.03 0.03 0.03 0.03 0.04
0.11 0.18 0.21 0.15 0.09 0.05 0.02 0.01 0.01 0.01 0.01 0.02 0.02 0.01 0.02 0.04 0.05 0.04 0.03 0.02 0.01 0.01 0.01 0.00 0.00 0.01 0.02 0.04 0.07 0.08 0.11 0.16 0.13 0.08 0.07 0.09 0.08 0.07 0.08 0.08 0.05 0.04 0.06 0.06
0.09 0.17 0.21 0.15 0.12 0.07 0.01 0.01 0.01 0.01 0.01 0.03 0.03 0.02 0.04 0.07 0.06 0.04 0.02 0.01 0.01 0.00 0.00 0.00 0.00 0.00 0.01 0.03 0.06 0.10 0.13 0.12 0.11 0.11 0.10 0.12 0.12 0.13 0.15 0.12 0.08 0.07 0.06 0.05
0.10 0.16 0.21 0.15 0.10 0.04 0.01 0.00 0.01 0.01 0.01 0.01 0.02 0.04 0.06 0.06 0.03 0.01 0.00 0.00 0.00 0.00 0.00 0.00 0.00 0.00 0.00 0.00 0.02 0.04 0.06 0.08 0.10 0.11 0.13 0.17 0.19 0.20 0.18 0.15 0.14 0.12 0.07 0.06
0.15 0.18 0.26 0.24 0.26 0.12 0.01 0.01 0.01 0.00 0.00 0.00 0.01 0.02 0.02 0.02 0.01 0.00 0.00 0.00 0.00 0.00 0.00 0.00 0.00 0.00 0.00 0.00 0.00 0.01 0.03 0.06 0.09 0.13 0.17 0.22 0.24 0.26 0.26 0.27 0.25 0.21 0.14 0.08
0.16 0.18 0.23 0.27 0.35 0.16 0.03 0.01 0.01 0.01 0.00 0.00 0.00 0.00 0.00 0.00 0.00 0.00 0.00 0.00 0.00 0.00 0.00 0.00 0.00 0.00 0.00 0.00 0.00 0.02 0.04 0.06 0.07 0.09 0.14 0.20 0.26 0.32 0.37 0.39 0.37 0.35 0.28 0.20
0.19 0.19 0.17 0.20 0.24 0.16 0.05 0.03 0.01 0.01 0.00 0.00 0.00 0.00 0.00 0.00 0.00 0.00 0.00 0.00 0.00 0.00 0.00 0.00 0.00 0.00 0.00 0.00 0.00 0.00 0.02 0.03 0.03 0.05 0.10 0.16 0.24 0.31 0.38 0.43 0.42 0.39 0.36 0.30
0.24 0.25 0.25 0.29 0.31 0.15 0.08 0.03 0.01 0.00 0.00 0.00 0.00 0.00 0.00 0.00 0.00 0.00 0.00 0.00 0.00 0.00 0.00 0.00 0.00 0.00 0.00 0.00 0.00 0.00 0.00 0.00 0.00 0.02 0.05 0.10 0.14 0.18 0.22 0.26 0.32 0.37 0.38 0.33
0.14 0.16 0.21 0.29 0.28 0.14 0.07 0.03 0.01 0.00 0.00 0.00 0.00 0.00 0.00 0.00 0.00 0.00 0.00 0.00 0.00 0.00 0.00 0.00 0.00 0.00 0.00 0.00 0.00 0.00 0.00 0.00 0.00 0.01 0.02 0.04 0.05 0.05 0.08 0.15 0.22 0.27 0.30 0.30
0.10 0.12 0.17 0.24 0.25 0.13 0.05 0.02 0.01 0.00 0.00 0.00 0.00 0.00 0.00 0.00 0.00 0.00 0.00 0.00 0.00 0.00 0.00 0.00 0.00 0.00 0.00 0.00 0.00 0.00 0.00 0.00 0.01 0.01 0.01 0.01 0.03 0.04 0.06 0.12 0.18 0.21 0.24 0.21
0.07 0.10 0.16 0.23 0.22 0.16 0.06 0.02 0.01 0.01 0.00 0.00 0.00 0.00 0.00 0.00 0.00 0.00 0.00 0.00 0.00 0.00 0.00 0.00 0.00 0.00 0.00 0.00 0.00 0.01 0.03 0.01 0.04 0.06 0.02 0.02 0.02 0.04 0.06 0.08 0.09 0.08 0.10 0.07

GEFSCGP_prec_meanprecacc_024.txt.gz
Total_Precipitation_Accumulation
0.11 0.22 0.27 0.22 0.19 0.18 0.15 0.12 0.08 0.04 0.02 0.01 0.00 0.00 0.00 0.00 0.00 0.00 0.00 0.00 0.00 0.00 0.00 0.00 0.00 0.01 0.05 0.14 0.24 0.38 0.67 1.01 1.09 0.84 0.63 0.52 0.44 0.33 0.24 0.19 0.23 0.33 0.33 0.27
0.04 0.09 0.11 0.11 0.12 0.14 0.16 0.15 0.10 0.06 0.02 0.01 0.01 0.00 0.00 0.00 0.00 0.00 0.00 0.00 0.00 0.00 0.00 0.00 0.00 0.02 0.07 0.20 0.34 0.46 0.66 0.98 1.03 0.90 0.75 0.65 0.58 0.45 0.34 0.28 0.26 0.35 0.36 0.42
0.02 0.03 0.03 0.07 0.12 0.15 0.15 0.13 0.10 0.07 0.04 0.02 0.01 0.00 0.00 0.00 0.00 0.00 0.00 0.00 0.00 0.00 0.00 0.00 0.00 0.01 0.04 0.13 0.24 0.37 0.48 0.61 0.68 0.69 0.65 0.65 0.59 0.49 0.43 0.37 0.34 0.38 0.40 0.48
0.02 0.02 0.04 0.06 0.07 0.10 0.11 0.07 0.04 0.03 0.03 0.02 0.01 0.00 0.00 0.00 0.00 0.00 0.00 0.00 0.00 0.00 0.00 0.00 0.00 0.00 0.02 0.05 0.11 0.20 0.27 0.34 0.37 0.37 0.41 0.55 0.63 0.62 0.55 0.46 0.45 0.50 0.51 0.55
0.00 0.01 0.02 0.04 0.05 0.07 0.06 0.03 0.03 0.03 0.02 0.02 0.01 0.01 0.00 0.00 0.00 0.00 0.00 0.00 0.00 0.00 0.00 0.00 0.00 0.00 0.00 0.01 0.03 0.06 0.09 0.10 0.13 0.15 0.20 0.32 0.37 0.46 0.55 0.45 0.43 0.54 0.59 0.58
0.00 0.00 0.00 0.01 0.02 0.03 0.04 0.04 0.03 0.02 0.02 0.02 0.01 0.01 0.00 0.00 0.00 0.00 0.00 0.00 0.00 0.00 0.00 0.00 0.00 0.00 0.00 0.01 0.01 0.02 0.03 0.03 0.03 0.05 0.07 0.11 0.18 0.33 0.63 0.66 0.58 0.63 0.70 0.60
0.00 0.00 0.00 0.00 0.00 0.01 0.02 0.03 0.04 0.03 0.03 0.02 0.01 0.00 0.00 0.00 0.00 0.00 0.00 0.00 0.00 0.00 0.00 0.00 0.00 0.00 0.00 0.00 0.01 0.01 0.02 0.03 0.04 0.04 0.04 0.07 0.13 0.19 0.48 0.72 0.66 0.58 0.65 0.65
0.00 0.00 0.00 0.00 0.00 0.00 0.01 0.01 0.02 0.02 0.01 0.00 0.00 0.00 0.00 0.00 0.00 0.00 0.00 0.00 0.00 0.00 0.00 0.00 0.00 0.00 0.01 0.01 0.01 0.02 0.03 0.06 0.07 0.04 0.02 0.05 0.08 0.10 0.19 0.35 0.43 0.42 0.41 0.49
0.00 0.00 0.00 0.00 0.00 0.00 0.00 0.00 0.00 0.00 0.00 0.00 0.00 0.00 0.00 0.00 0.00 0.00 0.00 0.00 0.00 0.00 0.00 0.00 0.00 0.00 0.01 0.02 0.02 0.03 0.05 0.12 0.14 0.13 0.11 0.09 0.09 0.15 0.22 0.24 0.30 0.43 0.44 0.44
0.04 0.01 0.00 0.01 0.01 0.01 0.01 0.01 0.01 0.01 0.01 0.01 0.00 0.00 0.00 0.00 0.00 0.00 0.00 0.00 0.00 0.00 0.00 0.00 0.00 0.00 0.01 0.02 0.03 0.02 0.04 0.10 0.23 0.34 0.31 0.24 0.23 0.29 0.51 0.56 0.36 0.35 0.43 0.43
0.16 0.11 0.03 0.03 0.04 0.05 0.04 0.04 0.03 0.03 0.01 0.02 0.03 0.01 0.00 0.01 0.00 0.00 0.00 0.00 0.00 0.00 0.00 0.00 0.00 0.01 0.02 0.02 0.01 0.01 0.02 0.08 0.14 0.18 0.19 0.22 0.30 0.40 0.61 0.80 0.70 0.47 0.38 0.35
0.21 0.24 0.12 0.07 0.09 0.11 0.11 0.13 0.14 0.15 0.11 0.10 0.13 0.04 0.01 0.01 0.01 0.01 0.01 0.01 0.01 0.01 0.00 0.01 0.00 0.01 0.01 0.01 0.01 0.00 0.01 0.05 0.11 0.12 0.09 0.11 0.20 0.32 0.37 0.41 0.46 0.37 0.23 0.17
0.31 0.39 0.29 0.17 0.17 0.14 0.19 0.22 0.21 0.21 0.19 0.15 0.13 0.04 0.02 0.03 0.03 0.03 0.02 0.02 0.02 0.01 0.01 0.01 0.01 0.01 0.00 0.00 0.00 0.00 0.00 0.01 0.02 0.05 0.07 0.08 0.08 0.12 0.13 0.10 0.09 0.12 0.11 0.09
0.31 0.36 0.36 0.26 0.19 0.15 0.14 0.15 0.19 0.25 0.27 0.18 0.09 0.04 0.04 0.04 0.03 0.03 0.03 0.02 0.02 0.03 0.03 0.02 0.01 0.01 0.01 0.00 0.00 0.00 0.00 0.01 0.02 0.02 0.04 0.05 0.05 0.05 0.05 0.04 0.03 0.04 0.05 0.05
0.21 0.21 0.19 0.13 0.08 0.08 0.07 0.06 0.10 0.14 0.15 0.16 0.07 0.04 0.03 0.04 0.04 0.04 0.03 0.02 0.02 0.02 0.02 0.02 0.01 0.01 0.01 0.01 0.01 0.01 0.02 0.04 0.04 0.02 0.02 0.03 0.04 0.05 0.05 0.05 0.03 0.04 0.05 0.05
0.14 0.16 0.14 0.10 0.07 0.06 0.03 0.02 0.02 0.03 0.04 0.05 0.04 0.02 0.02 0.03 0.05 0.04 0.03 0.02 0.02 0.02 0.02 0.01 0.01 0.01 0.01 0.02 0.03 0.04 0.06 0.11 0.10 0.05 0.05 0.07 0.07 0.05 0.05 0.05 0.05 0.04 0.06 0.05
0.12 0.21 0.25 0.19 0.12 0.06 0.04 0.03 0.03 0.02 0.01 0.02 0.02 0.01 0.02 0.04 0.05 0.04 0.03 0.02 0.01 0.01 0.01 0.01 0.01 0.01 0.03 0.04 0.07 0.09 0.12 0.17 0.14 0.10 0.09 0.10 0.09 0.08 0.10 0.12 0.09 0.08 0.11 0.10
0.10 0.20 0.26 0.19 0.15 0.10 0.06 0.03 0.03 0.03 0.02 0.03 0.03 0.03 0.04 0.07 0.06 0.04 0.02 0.01 0.01 0.01 0.01 0.01 0.00 0.00 0.01 0.03 0.06 0.11 0.13 0.14 0.13 0.13 0.13 0.15 0.14 0.14 0.17 0.15 0.13 0.12 0.11 0.09
0.11 0.20 0.26 0.19 0.13 0.08 0.07 0.05 0.04 0.04 0.02 0.02 0.02 0.04 0.06 0.06 0.03 0.01 0.01 0.00 0.00 0.00 0.00 0.00 0.00 0.00 0.00 0.00 0.02 0.04 0.07 0.09 0.12 0.13 0.16 0.20 0.21 0.22 0.21 0.19 0.20 0.19 0.13 0.12
0.23 0.27 0.36 0.34 0.34 0.22 0.09 0.06 0.04 0.04 0.04 0.01 0.01 0.02 0.02 0.02 0.01 0.00 0.00 0.00 0.00 0.00 0.00 0.00 0.00 0.00 0.00 0.00 0.00 0.01 0.03 0.06 0.09 0.14 0.18 0.24 0.26 0.28 0.29 0.32 0.32 0.29 0.22 0.17
0.21 0.26 0.32 0.37 0.45 0.30 0.09 0.05 0.05 0.06 0.05 0.01 0.01 0.01 0.01 0.01 0.01 0.00 0.00 0.00 0.00 0.00 0.00 0.00 0.00 0.00 0.00 0.00 0.00 0.02 0.04 0.06 0.07 0.09 0.14 0.20 0.27 0.34 0.40 0.43 0.41 0.41 0.35 0.28
0.24 0.25 0.25 0.32 0.42 0.36 0.15 0.11 0.13 0.10 0.03 0.01 0.00 0.00 0.00 0.00 0.00 0.00 0.00 0.00 0.00 0.00 0.00 0.00 0.00 0.00 0.00 0.00 0.00 0.00 0.02 0.03 0.03 0.05 0.10 0.16 0.25 0.32 0.39 0.46 0.46 0.44 0.42 0.37
0.27 0.29 0.31 0.41 0.53 0.35 0.21 0.19 0.17 0.09 0.03 0.01 0.00 0.00 0.00 0.00 0.00 0.00 0.00 0.00 0.00 0.00 0.00 0.00 0.00 0.00 0.00 0.00 0.00 0.00 0.00 0.00 0.00 0.02 0.05 0.10 0.14 0.18 0.22 0.28 0.35 0.41 0.42 0.39
0.15 0.17 0.22 0.32 0.32 0.19 0.18 0.16 0.11 0.05 0.02 0.00 0.00 0.00 0.00 0.00 0.00 0.00 0.00 0.00 0.00 0.00 0.00 0.00 0.00 0.00 0.00 0.00 0.00 0.00 0.00 0.00 0.00 0.01 0.02 0.04 0.05 0.05 0.08 0.16 0.24 0.30 0.35 0.36
0.10 0.12 0.18 0.25 0.25 0.15 0.10 0.10 0.07 0.03 0.01 0.00 0.00 0.00 0.00 0.00 0.00 0.00 0.00 0.00 0.00 0.00 0.00 0.00 0.00 0.00 0.00 0.00 0.00 0.00 0.00 0.00 0.01 0.01 0.01 0.01 0.03 0.04 0.07 0.13 0.20 0.24 0.29 0.28
0.07 0.11 0.17 0.24 0.23 0.17 0.08 0.07 0.04 0.02 0.01 0.00 0.00 0.00 0.00 0.00 0.00 0.00 0.00 0.00 0.00 0.00 0.00 0.00 0.00 0.00 0.00 0.00 0.00 0.01 0.03 0.01 0.04 0.06 0.02 0.02 0.02 0.04 0.06 0.09 0.10 0.10 0.13 0.11

GEFSCGP_prec_meanprecacc_030.txt.gz
Total_Precipitation_Accumulation
0.12 0.30 0.45 0.38 0.29 0.24 0.18 0.14 0.10 0.06 0.06 0.05 0.03 0.02 0.01 0.01 0.00 0.00 0.00 0.00 0.00 0.00 0.00 0.00 0.00 0.01 0.05 0.14 0.24 0.38 0.68 1.02 1.12 0.93 0.75 0.65 0.59 0.44 0.29 0.21 0.24 0.34 0.33 0.27
0.07 0.16 0.17 0.13 0.13 0.16 0.19 0.21 0.17 0.11 0.07 0.05 0.03 0.02 0.01 0.00 0.01 0.01 0.00 0.00 0.00 0.00 0.00 0.00 0.00 0.02 0.07 0.20 0.34 0.46 0.67 0.99 1.06 0.97 0.85 0.76 0.72 0.57 0.43 0.35 0.30 0.38 0.39 0.43
0.04 0.05 0.05 0.08 0.15 0.22 0.25 0.26 0.22 0.17 0.09 0.06 0.03 0.02 0.01 0.00 0.00 0.00 0.00 0.00 0.00 0.00 0.00 0.00 0.00 0.01 0.04 0.13 0.24 0.37 0.48 0.62 0.70 0.73 0.72 0.77 0.76 0.69 0.67 0.61 0.51 0.47 0.46 0.55
0.02 0.02 0.04 0.07 0.09 0.14 0.20 0.14 0.10 0.08 0.08 0.07 0.05 0.05 0.01 0.00 0.00 0.00 0.00 0.00 0.00 0.00 0.00 0.00 0.00 0.00 0.02 0.05 0.11 0.20 0.27 0.34 0.38 0.40 0.48 0.66 0.77 0.79 0.76 0.67 0.58 0.58 0.58 0.63
0.00 0.01 0.02 0.04 0.06 0.09 0.10 0.06 0.06 0.06 0.06 0.06 0.05 0.05 0.01 0.00 0.00 0.00 0.00 0.00 0.00 0.00 0.00 0.00 0.00 0.00 0.00 0.01 0.03 0.06 0.09 0.10 0.14 0.17 0.25 0.39 0.46 0.56 0.67 0.58 0.56 0.66 0.69 0.67
0.00 0.00 0.00 0.01 0.02 0.04 0.05 0.05 0.05 0.04 0.05 0.05 0.03 0.04 0.02 0.01 0.00 0.00 0.00 0.00 0.00 0.00 0.00 0.00 0.00 0.00 0.00 0.01 0.01 0.02 0.03 0.03 0.03 0.05 0.09 0.14 0.22 0.38 0.69 0.75 0.74 0.85 0.88 0.74
0.00 0.00 0.00 0.00 0.00 0.01 0.02 0.05 0.08 0.07 0.07 0.04 0.02 0.01 0.01 0.00 0.00 0.00 0.00 0.00 0.00 0.00 0.00 0.00 0.00 0.00 0.00 0.00 0.01 0.01 0.02 0.03 0.04 0.04 0.04 0.08 0.14 0.21 0.51 0.77 0.75 0.72 0.81 0.81
0.00 0.00 0.00 0.00 0.00 0.02 0.01 0.03 0.07 0.08 0.07 0.04 0.01 0.01 0.00 0.00 0.00 0.00 0.00 0.00 0.00 0.00 0.00 0.00 0.00 0.00 0.01 0.01 0.01 0.02 0.03 0.06 0.07 0.04 0.03 0.05 0.09 0.11 0.20 0.37 0.47 0.50 0.53 0.64
0.00 0.00 0.00 0.00 0.00 0.00 0.01 0.01 0.01 0.03 0.02 0.02 0.01 0.00 0.00 0.00 0.00 0.00 0.00 0.00 0.00 0.00 0.00 0.00 0.00 0.00 0.01 0.02 0.02 0.03 0.05 0.12 0.14 0.13 0.11 0.09 0.10 0.15 0.23 0.25 0.31 0.48 0.50 0.50
0.04 0.02 0.01 0.01 0.01 0.01 0.01 0.01 0.02 0.05 0.07 0.07 0.03 0.02 0.03 0.02 0.02 0.01 0.01 0.01 0.02 0.02 0.02 0.01 0.01 0.02 0.01 0.02 0.03 0.02 0.04 0.10 0.23 0.34 0.31 0.24 0.23 0.29 0.51 0.57 0.38 0.38 0.46 0.46
0.17 0.12 0.04 0.03 0.04 0.06 0.08 0.08 0.07 0.10 0.08 0.12 0.14 0.10 0.07 0.07 0.07 0.05 0.04 0.04 0.05 0.06 0.06 0.06 0.04 0.04 0.04 0.02 0.01 0.01 0.02 0.08 0.14 0.18 0.19 0.22 0.30 0.40 0.61 0.80 0.71 0.49 0.40 0.38
0.22 0.28 0.15 0.08 0.10 0.12 0.14 0.19 0.24 0.34 0.31 0.27 0.30 0.18 0.09 0.08 0.08 0.06 0.04 0.05 0.06 0.06 0.06 0.08 0.09 0.05 0.03 0.01 0.01 0.00 0.01 0.05 0.11 0.12 0.09 0.11 0.20 0.32 0.37 0.41 0.46 0.37 0.24 0.18
0.33 0.45 0.36 0.24 0.28 0.27 0.30 0.30 0.28 0.32 0.37 0.35 0.33 0.20 0.11 0.08 0.07 0.06 0.04 0.03 0.04 0.04 0.03 0.03 0.04 0.05 0.04 0.02 0.01 0.00 0.01 0.02 0.03 0.05 0.07 0.08 0.08 0.12 0.13 0.10 0.09 0.12 0.12 0.10
0.33 0.41 0.45 0.40 0.42 0.43 0.39 0.31 0.26 0.34 0.44 0.36 0.27 0.19 0.17 0.14 0.09 0.05 0.04 0.03 0.03 0.04 0.04 0.03 0.01 0.01 0.01 0.01 0.00 0.00 0.01 0.03 0.05 0.05 0.05 0.05 0.05 0.05 0.05 0.04 0.03 0.04 0.05 0.06
0.22 0.25 0.24 0.21 0.18 0.19 0.18 0.15 0.17 0.21 0.25 0.30 0.21 0.15 0.11 0.10 0.07 0.04 0.03 0.03 0.03 0.03 0.03 0.02 0.02 0.01 0.01 0.01 0.01 0.01 0.02 0.05 0.06 0.06 0.08 0.06 0.05 0.05 0.05 0.05 0.03 0.04 0.05 0.05
0.15 0.18 0.17 0.14 0.12 0.12 0.12 0.11 0.09 0.09 0.11 0.15 0.16 0.10 0.05 0.05 0.05 0.04 0.03 0.03 0.03 0.03 0.02 0.02 0.02 0.01 0.01 0.02 0.03 0.04 0.07 0.13 0.12 0.06 0.07 0.11 0.11 0.10 0.07 0.06 0.05 0.05 0.06 0.07
0.13 0.22 0.29 0.23 0.17 0.12 0.24 0.25 0.22 0.19 0.13 0.10 0.08 0.04 0.03 0.05 0.05 0.05 0.04 0.04 0.04 0.02 0.02 0.02 0.02 0.02 0.03 0.05 0.08 0.09 0.13 0.18 0.16 0.11 0.11 0.15 0.14 0.14 0.13 0.14 0.12 0.12 0.14 0.14
0.10 0.22 0.32 0.25 0.24 0.38 0.57 0.41 0.33 0.25 0.09 0.04 0.03 0.03 0.05 0.08 0.07 0.05 0.04 0.05 0.06 0.04 0.03 0.02 0.02 0.02 0.03 0.05 0.09 0.13 0.15 0.17 0.16 0.16 0.17 0.19 0.18 0.19 0.22 0.19 0.18 0.18 0.18 0.17
0.12 0.23 0.33 0.28 0.29 0.48 0.50 0.30 0.22 0.20 0.12 0.03 0.03 0.04 0.07 0.09 0.05 0.02 0.02 0.04 0.04 0.03 0.02 0.01 0.01 0.01 0.01 0.02 0.03 0.05 0.08 0.10 0.13 0.16 0.20 0.24 0.25 0.28 0.28 0.26 0.29 0.28 0.23 0.22
0.24 0.30 0.43 0.43 0.52 0.52 0.27 0.14 0.11 0.16 0.20 0.04 0.02 0.02 0.03 0.04 0.03 0.02 0.01 0.02 0.01 0.00 0.00 0.00 0.00 0.00 0.00 0.00 0.01 0.02 0.04 0.06 0.10 0.15 0.20 0.26 0.29 0.32 0.34 0.39 0.40 0.38 0.32 0.27
0.22 0.29 0.38 0.46 0.65 0.53 0.21 0.10 0.10 0.18 0.24 0.07 0.02 0.01 0.01 0.01 0.02 0.01 0.01 0.01 0.00 0.00 0.00 0.00 0.00 0.00 0.00 0.00 0.00 0.02 0.04 0.07 0.07 0.09 0.14 0.20 0.27 0.35 0.43 0.47 0.47 0.47 0.42 0.35
0.24 0.26 0.28 0.38 0.54 0.49 0.20 0.15 0.18 0.17 0.07 0.03 0.02 0.01 0.00 0.00 0.00 0.00 0.01 0.01 0.00 0.00 0.00 0.00 0.00 0.00 0.00 0.00 0.00 0.00 0.02 0.03 0.03 0.05 0.10 0.16 0.25 0.32 0.40 0.48 0.49 0.49 0.48 0.45
0.27 0.30 0.32 0.42 0.57 0.38 0.23 0.20 0.19 0.12 0.06 0.02 0.01 0.00 0.00 0.00 0.00 0.00 0.00 0.00 0.00 0.00 0.00 0.00 0.00 0.00 0.00 0.00 0.00 0.00 0.00 0.00 0.00 0.02 0.05 0.10 0.14 0.19 0.23 0.29 0.37 0.43 0.47 0.45
0.15 0.17 0.23 0.32 0.32 0.20 0.18 0.16 0.12 0.07 0.04 0.02 0.01 0.00 0.00 0.00 0.00 0.00 0.00 0.00 0.00 0.00 0.00 0.00 0.00 0.00 0.00 0.00 0.00 0.00 0.00 0.00 0.00 0.01 0.02 0.04 0.05 0.06 0.09 0.17 0.26 0.33 0.39 0.42
0.10 0.13 0.18 0.25 0.25 0.15 0.10 0.10 0.07 0.04 0.02 0.01 0.01 0.00 0.00 0.00 0.00 0.00 0.00 0.00 0.00 0.00 0.00 0.00 0.00 0.00 0.00 0.00 0.00 0.00 0.00 0.00 0.01 0.01 0.01 0.02 0.03 0.04 0.07 0.13 0.22 0.26 0.33 0.34
0.07 0.11 0.17 0.24 0.23 0.17 0.08 0.07 0.05 0.03 0.02 0.01 0.01 0.00 0.00 0.00 0.00 0.00 0.00 0.00 0.00 0.00 0.00 0.00 0.00 0.00 0.00 0.00 0.00 0.01 0.03 0.01 0.04 0.06 0.03 0.02 0.02 0.04 0.07 0.09 0.11 0.11 0.15 0.15

GEFSCGP_prec_meanprecacc_036.txt.gz
Total_Precipitation_Accumulation
0.12 0.32 0.49 0.41 0.33 0.28 0.23 0.19 0.15 0.10 0.10 0.08 0.08 0.08 0.08 0.08 0.09 0.07 0.05 0.04 0.03 0.01 0.00 0.00 0.00 0.01 0.05 0.15 0.24 0.39 0.69 1.04 1.14 0.95 0.78 0.70 0.64 0.52 0.39 0.33 0.38 0.46 0.43 0.35
0.07 0.17 0.18 0.14 0.16 0.19 0.22 0.24 0.21 0.15 0.11 0.08 0.06 0.04 0.04 0.05 0.07 0.07 0.06 0.05 0.04 0.02 0.01 0.00 0.00 0.02 0.07 0.20 0.35 0.48 0.69 1.02 1.09 1.01 0.92 0.85 0.80 0.67 0.55 0.51 0.50 0.54 0.50 0.52
0.04 0.05 0.05 0.09 0.16 0.23 0.27 0.28 0.25 0.19 0.11 0.08 0.05 0.03 0.02 0.03 0.03 0.04 0.04 0.05 0.04 0.02 0.01 0.01 0.01 0.02 0.05 0.13 0.25 0.39 0.50 0.66 0.76 0.79 0.80 0.86 0.86 0.83 0.82 0.76 0.69 0.64 0.61 0.67
0.02 0.02 0.04 0.07 0.09 0.14 0.20 0.15 0.11 0.09 0.09 0.08 0.06 0.06 0.01 0.01 0.01 0.02 0.03 0.03 0.04 0.03 0.02 0.01 0.01 0.01 0.02 0.06 0.12 0.21 0.30 0.39 0.43 0.45 0.55 0.73 0.85 0.87 0.84 0.78 0.73 0.74 0.77 0.81
0.00 0.01 0.02 0.04 0.06 0.09 0.10 0.06 0.06 0.06 0.07 0.07 0.06 0.06 0.02 0.01 0.01 0.02 0.02 0.03 0.03 0.03 0.02 0.02 0.02 0.01 0.02 0.03 0.04 0.07 0.11 0.14 0.18 0.21 0.29 0.44 0.51 0.61 0.73 0.66 0.64 0.76 0.81 0.85
0.00 0.00 0.00 0.01 0.02 0.04 0.05 0.05 0.05 0.05 0.05 0.05 0.04 0.05 0.02 0.01 0.02 0.01 0.01 0.02 0.02 0.02 0.03 0.02 0.01 0.02 0.03 0.03 0.03 0.03 0.04 0.05 0.05 0.07 0.11 0.16 0.25 0.41 0.72 0.79 0.78 0.91 0.96 0.86
0.00 0.00 0.00 0.00 0.01 0.02 0.03 0.07 0.10 0.09 0.09 0.06 0.03 0.04 0.03 0.03 0.02 0.02 0.02 0.01 0.02 0.03 0.04 0.04 0.02 0.02 0.02 0.02 0.02 0.02 0.03 0.04 0.04 0.05 0.06 0.09 0.16 0.23 0.53 0.79 0.77 0.75 0.84 0.85
0.00 0.00 0.00 0.00 0.01 0.03 0.03 0.07 0.12 0.13 0.11 0.08 0.04 0.04 0.04 0.03 0.03 0.03 0.03 0.04 0.04 0.05 0.06 0.07 0.06 0.05 0.04 0.04 0.03 0.03 0.03 0.06 0.07 0.04 0.03 0.06 0.11 0.13 0.21 0.38 0.48 0.52 0.55 0.65
0.01 0.01 0.00 0.00 0.01 0.02 0.05 0.07 0.08 0.11 0.08 0.06 0.04 0.05 0.05 0.04 0.05 0.06 0.06 0.08 0.10 0.12 0.15 0.15 0.14 0.11 0.10 0.08 0.05 0.04 0.06 0.13 0.15 0.13 0.11 0.09 0.10 0.16 0.23 0.25 0.32 0.49 0.51 0.51
0.04 0.02 0.01 0.01 0.01 0.02 0.04 0.06 0.09 0.15 0.18 0.14 0.10 0.13 0.15 0.11 0.11 0.11 0.12 0.15 0.21 0.25 0.26 0.26 0.24 0.22 0.17 0.11 0.07 0.05 0.05 0.11 0.23 0.34 0.31 0.25 0.23 0.29 0.52 0.57 0.38 0.38 0.47 0.47
0.17 0.12 0.04 0.03 0.05 0.08 0.11 0.16 0.18 0.22 0.22 0.26 0.29 0.31 0.26 0.23 0.22 0.23 0.25 0.26 0.32 0.37 0.38 0.38 0.36 0.31 0.26 0.17 0.08 0.05 0.04 0.10 0.16 0.18 0.20 0.22 0.30 0.40 0.61 0.81 0.71 0.49 0.40 0.39
0.22 0.28 0.15 0.08 0.12 0.14 0.18 0.28 0.41 0.55 0.50 0.44 0.48 0.42 0.28 0.23 0.25 0.25 0.25 0.23 0.24 0.28 0.31 0.35 0.36 0.29 0.23 0.17 0.10 0.06 0.05 0.09 0.15 0.15 0.12 0.14 0.22 0.33 0.38 0.42 0.46 0.37 0.24 0.19
0.33 0.46 0.37 0.25 0.30 0.30 0.35 0.38 0.44 0.55 0.59 0.55 0.54 0.44 0.27 0.19 0.16 0.16 0.15 0.17 0.16 0.15 0.16 0.17 0.18 0.18 0.15 0.13 0.12 0.10 0.10 0.11 0.13 0.15 0.16 0.14 0.13 0.15 0.15 0.12 0.11 0.12 0.12 0.10
0.33 0.42 0.46 0.43 0.47 0.51 0.50 0.42 0.37 0.49 0.62 0.53 0.45 0.37 0.28 0.22 0.15 0.11 0.11 0.12 0.12 0.11 0.10 0.10 0.11 0.12 0.14 0.13 0.12 0.11 0.11 0.16 0.21 0.30 0.31 0.25 0.20 0.15 0.12 0.09 0.07 0.07 0.07 0.07
0.22 0.25 0.25 0.23 0.22 0.31 0.35 0.30 0.29 0.35 0.37 0.43 0.37 0.31 0.21 0.16 0.13 0.13 0.13 0.12 0.11 0.10 0.09 0.08 0.09 0.10 0.12 0.13 0.13 0.13 0.14 0.21 0.26 0.35 0.41 0.36 0.33 0.28 0.23 0.16 0.11 0.10 0.10 0.09
0.15 0.18 0.17 0.15 0.15 0.22 0.28 0.27 0.27 0.27 0.29 0.34 0.35 0.28 0.13 0.09 0.09 0.10 0.12 0.13 0.14 0.13 0.10 0.10 0.11 0.11 0.11 0.13 0.14 0.15 0.20 0.29 0.34 0.36 0.44 0.55 0.53 0.41 0.31 0.23 0.18 0.17 0.17 0.16
0.13 0.22 0.29 0.24 0.20 0.22 0.45 0.46 0.44 0.44 0.36 0.31 0.22 0.12 0.06 0.07 0.08 0.09 0.12 0.15 0.16 0.14 0.12 0.12 0.12 0.13 0.14 0.16 0.19 0.21 0.26 0.35 0.35 0.37 0.45 0.61 0.58 0.43 0.37 0.36 0.32 0.28 0.29 0.29
0.10 0.22 0.32 0.26 0.29 0.56 0.80 0.59 0.55 0.48 0.26 0.12 0.05 0.04 0.05 0.09 0.09 0.08 0.09 0.12 0.15 0.14 0.12 0.11 0.10 0.11 0.12 0.15 0.18 0.21 0.25 0.28 0.30 0.33 0.38 0.49 0.48 0.44 0.45 0.44 0.39 0.33 0.31 0.31
0.12 0.23 0.33 0.29 0.33 0.59 0.64 0.41 0.33 0.31 0.18 0.04 0.04 0.05 0.07 0.09 0.06 0.03 0.05 0.07 0.09 0.08 0.06 0.05 0.05 0.05 0.05 0.05 0.06 0.09 0.12 0.15 0.19 0.24 0.30 0.37 0.39 0.41 0.42 0.41 0.42 0.39 0.35 0.34
0.25 0.30 0.43 0.44 0.54 0.57 0.31 0.16 0.15 0.21 0.24 0.05 0.02 0.02 0.03 0.04 0.04 0.02 0.02 0.04 0.04 0.03 0.02 0.01 0.01 0.01 0.00 0.00 0.01 0.03 0.05 0.08 0.12 0.17 0.23 0.29 0.31 0.35 0.38 0.42 0.44 0.43 0.40 0.36
0.22 0.30 0.38 0.46 0.65 0.54 0.21 0.11 0.11 0.20 0.25 0.08 0.02 0.01 0.01 0.02 0.02 0.01 0.02 0.03 0.02 0.01 0.01 0.00 0.00 0.00 0.00 0.00 0.00 0.02 0.05 0.07 0.07 0.09 0.14 0.20 0.27 0.35 0.43 0.48 0.48 0.49 0.46 0.40
0.24 0.26 0.28 0.38 0.54 0.49 0.20 0.15 0.18 0.17 0.08 0.03 0.02 0.01 0.00 0.01 0.00 0.00 0.01 0.01 0.01 0.01 0.00 0.00 0.00 0.00 0.00 0.00 0.00 0.00 0.02 0.03 0.03 0.05 0.10 0.16 0.25 0.32 0.40 0.48 0.50 0.49 0.49 0.48
0.27 0.30 0.32 0.43 0.57 0.38 0.23 0.20 0.19 0.12 0.06 0.02 0.01 0.00 0.00 0.00 0.00 0.00 0.00 0.01 0.01 0.01 0.00 0.00 0.00 0.00 0.00 0.00 0.00 0.00 0.00 0.00 0.00 0.02 0.05 0.10 0.14 0.19 0.23 0.29 0.37 0.44 0.48 0.48
0.15 0.17 0.23 0.32 0.32 0.20 0.18 0.16 0.12 0.07 0.04 0.02 0.01 0.00 0.00 0.00 0.00 0.00 0.00 0.01 0.01 0.01 0.00 0.00 0.00 0.00 0.00 0.00 0.00 0.00 0.00 0.00 0.00 0.01 0.02 0.04 0.05 0.06 0.09 0.18 0.26 0.33 0.40 0.44
0.10 0.13 0.18 0.25 0.25 0.15 0.10 0.10 0.07 0.04 0.02 0.01 0.01 0.00 0.00 0.00 0.00 0.00 0.00 0.00 0.00 0.01 0.00 0.00 0.00 0.00 0.00 0.00 0.00 0.00 0.00 0.00 0.01 0.01 0.01 0.02 0.03 0.04 0.07 0.13 0.22 0.26 0.34 0.35
0.07 0.11 0.17 0.24 0.23 0.17 0.08 0.07 0.05 0.03 0.02 0.01 0.01 0.00 0.00 0.00 0.00 0.00 0.00 0.00 0.00 0.01 0.01 0.01 0.00 0.01 0.00 0.00 0.00 0.01 0.03 0.01 0.04 0.06 0.03 0.02 0.02 0.05 0.07 0.09 0.11 0.12 0.15 0.15

GEFSCGP_prec_meanprecacc_042.txt.gz
Total_Precipitation_Accumulation
0.12 0.32 0.49 0.41 0.33 0.28 0.23 0.20 0.15 0.10 0.11 0.08 0.08 0.08 0.09 0.10 0.12 0.10 0.08 0.08 0.06 0.04 0.02 0.01 0.01 0.01 0.05 0.15 0.25 0.39 0.70 1.05 1.15 0.96 0.80 0.73 0.68 0.56 0.45 0.41 0.46 0.52 0.49 0.43
0.07 0.17 0.18 0.14 0.16 0.20 0.23 0.24 0.21 0.15 0.11 0.08 0.06 0.05 0.05 0.06 0.08 0.09 0.08 0.08 0.07 0.04 0.02 0.01 0.01 0.03 0.07 0.21 0.35 0.49 0.70 1.05 1.13 1.06 0.99 0.93 0.89 0.75 0.64 0.63 0.61 0.65 0.62 0.66
0.04 0.05 0.05 0.09 0.16 0.24 0.27 0.28 0.25 0.19 0.12 0.09 0.05 0.03 0.02 0.03 0.03 0.04 0.05 0.06 0.06 0.04 0.02 0.02 0.02 0.03 0.06 0.15 0.26 0.41 0.56 0.75 0.88 0.93 0.95 1.00 0.99 0.93 0.90 0.87 0.81 0.79 0.77 0.82
0.02 0.02 0.04 0.07 0.10 0.14 0.21 0.15 0.11 0.09 0.09 0.08 0.06 0.06 0.02 0.01 0.02 0.02 0.03 0.04 0.05 0.04 0.03 0.03 0.03 0.03 0.04 0.08 0.15 0.27 0.42 0.58 0.64 0.67 0.75 0.91 0.99 0.98 0.94 0.89 0.86 0.88 0.89 0.92
0.00 0.01 0.02 0.04 0.06 0.09 0.10 0.06 0.06 0.07 0.07 0.07 0.06 0.06 0.02 0.01 0.01 0.02 0.02 0.03 0.04 0.04 0.04 0.04 0.04 0.05 0.06 0.07 0.10 0.17 0.28 0.37 0.48 0.51 0.55 0.67 0.71 0.76 0.85 0.77 0.75 0.86 0.92 0.95
0.00 0.00 0.00 0.01 0.02 0.04 0.05 0.05 0.05 0.05 0.06 0.06 0.04 0.05 0.03 0.01 0.02 0.02 0.02 0.02 0.03 0.04 0.06 0.08 0.08 0.11 0.13 0.13 0.15 0.20 0.24 0.27 0.31 0.31 0.32 0.35 0.41 0.53 0.83 0.88 0.86 1.00 1.05 0.96
0.00 0.00 0.00 0.00 0.01 0.02 0.03 0.07 0.10 0.10 0.10 0.06 0.03 0.05 0.04 0.03 0.03 0.03 0.03 0.03 0.04 0.07 0.09 0.13 0.15 0.17 0.17 0.16 0.18 0.21 0.25 0.27 0.25 0.22 0.20 0.21 0.27 0.32 0.61 0.86 0.84 0.81 0.89 0.90
0.00 0.00 0.00 0.00 0.01 0.03 0.04 0.08 0.14 0.15 0.12 0.09 0.06 0.08 0.06 0.04 0.04 0.04 0.05 0.06 0.08 0.10 0.14 0.19 0.26 0.27 0.26 0.25 0.22 0.21 0.22 0.25 0.23 0.18 0.13 0.15 0.19 0.20 0.27 0.43 0.52 0.55 0.58 0.68
0.01 0.01 0.00 0.00 0.01 0.03 0.06 0.09 0.11 0.15 0.11 0.09 0.08 0.10 0.09 0.05 0.07 0.08 0.08 0.11 0.15 0.19 0.26 0.33 0.38 0.38 0.35 0.32 0.25 0.22 0.23 0.26 0.25 0.22 0.20 0.17 0.17 0.21 0.27 0.28 0.35 0.51 0.53 0.52
0.04 0.02 0.01 0.01 0.01 0.03 0.05 0.08 0.13 0.22 0.23 0.18 0.15 0.20 0.21 0.15 0.14 0.15 0.16 0.19 0.26 0.32 0.37 0.43 0.48 0.46 0.41 0.32 0.23 0.19 0.18 0.23 0.34 0.45 0.40 0.32 0.30 0.34 0.55 0.59 0.40 0.40 0.49 0.49
0.17 0.12 0.04 0.04 0.05 0.09 0.13 0.19 0.23 0.29 0.29 0.33 0.38 0.41 0.34 0.29 0.27 0.28 0.29 0.30 0.37 0.44 0.46 0.49 0.51 0.52 0.47 0.34 0.22 0.18 0.16 0.20 0.25 0.28 0.28 0.29 0.37 0.45 0.65 0.84 0.74 0.51 0.42 0.41
0.22 0.28 0.15 0.09 0.13 0.16 0.22 0.32 0.45 0.61 0.57 0.50 0.55 0.53 0.40 0.30 0.30 0.31 0.32 0.28 0.30 0.36 0.39 0.44 0.46 0.43 0.38 0.28 0.19 0.15 0.14 0.18 0.24 0.23 0.21 0.22 0.29 0.40 0.45 0.47 0.51 0.41 0.27 0.21
0.33 0.46 0.37 0.26 0.32 0.32 0.40 0.43 0.49 0.59 0.64 0.61 0.61 0.55 0.38 0.27 0.22 0.23 0.26 0.27 0.24 0.21 0.23 0.26 0.27 0.27 0.23 0.19 0.18 0.15 0.16 0.17 0.21 0.25 0.27 0.25 0.24 0.26 0.24 0.20 0.17 0.18 0.17 0.13
0.33 0.42 0.47 0.46 0.52 0.57 0.57 0.48 0.43 0.56 0.70 0.60 0.53 0.48 0.38 0.31 0.23 0.22 0.22 0.22 0.20 0.16 0.16 0.18 0.20 0.21 0.21 0.20 0.18 0.16 0.16 0.22 0.29 0.42 0.46 0.42 0.39 0.31 0.26 0.22 0.18 0.15 0.12 0.12
0.22 0.25 0.25 0.24 0.26 0.37 0.41 0.35 0.35 0.41 0.44 0.52 0.48 0.45 0.33 0.27 0.26 0.30 0.27 0.21 0.18 0.18 0.17 0.16 0.16 0.19 0.19 0.19 0.18 0.16 0.17 0.25 0.33 0.45 0.54 0.53 0.51 0.46 0.40 0.31 0.23 0.20 0.17 0.16
0.15 0.19 0.18 0.16 0.17 0.25 0.31 0.32 0.33 0.32 0.35 0.42 0.47 0.44 0.29 0.22 0.21 0.23 0.24 0.22 0.21 0.20 0.16 0.16 0.17 0.18 0.18 0.18 0.18 0.19 0.23 0.32 0.39 0.44 0.53 0.66 0.67 0.55 0.46 0.37 0.30 0.27 0.26 0.23
0.13 0.23 0.30 0.24 0.21 0.23 0.47 0.50 0.50 0.51 0.44 0.41 0.34 0.24 0.14 0.12 0.14 0.16 0.17 0.19 0.22 0.20 0.17 0.16 0.16 0.17 0.18 0.20 0.22 0.24 0.29 0.37 0.38 0.41 0.51 0.69 0.68 0.55 0.47 0.47 0.45 0.39 0.37 0.35
0.10 0.22 0.32 0.26 0.29 0.57 0.81 0.60 0.57 0.52 0.30 0.16 0.09 0.08 0.08 0.12 0.12 0.11 0.12 0.15 0.18 0.17 0.14 0.12 0.11 0.12 0.13 0.16 0.20 0.23 0.26 0.29 0.31 0.35 0.42 0.53 0.54 0.50 0.51 0.51 0.48 0.42 0.37 0.36
0.12 0.23 0.33 0.29 0.33 0.59 0.64 0.41 0.33 0.32 0.19 0.05 0.04 0.05 0.08 0.10 0.08 0.05 0.06 0.09 0.10 0.09 0.07 0.06 0.05 0.05 0.05 0.05 0.07 0.10 0.12 0.15 0.19 0.25 0.31 0.39 0.41 0.44 0.45 0.44 0.45 0.42 0.37 0.37
0.25 0.30 0.43 0.44 0.54 0.57 0.31 0.16 0.15 0.21 0.24 0.05 0.03 0.03 0.03 0.04 0.04 0.03 0.03 0.04 0.04 0.04 0.03 0.02 0.01 0.01 0.01 0.01 0.01 0.03 0.05 0.08 0.12 0.17 0.23 0.29 0.32 0.36 0.39 0.43 0.45 0.44 0.41 0.37
0.22 0.30 0.38 0.46 0.65 0.54 0.21 0.11 0.11 0.20 0.26 0.08 0.03 0.02 0.01 0.02 0.02 0.02 0.02 0.03 0.03 0.02 0.01 0.01 0.00 0.00 0.00 0.00 0.00 0.02 0.05 0.07 0.07 0.09 0.14 0.20 0.27 0.35 0.43 0.48 0.48 0.49 0.46 0.41
0.24 0.26 0.28 0.38 0.54 0.49 0.20 0.15 0.18 0.17 0.08 0.03 0.02 0.01 0.00 0.01 0.00 0.00 0.01 0.01 0.02 0.01 0.01 0.00 0.00 0.00 0.00 0.00 0.00 0.00 0.02 0.03 0.03 0.05 0.10 0.16 0.25 0.32 0.40 0.48 0.50 0.50 0.49 0.48
0.27 0.30 0.32 0.43 0.57 0.38 0.23 0.20 0.19 0.12 0.06 0.02 0.01 0.00 0.00 0.00 0.00 0.00 0.01 0.01 0.01 0.01 0.00 0.00 0.00 0.00 0.00 0.00 0.00 0.00 0.00 0.00 0.00 0.02 0.05 0.10 0.14 0.19 0.23 0.29 0.37 0.44 0.48 0.48
0.15 0.17 0.23 0.32 0.32 0.20 0.18 0.16 0.12 0.07 0.04 0.02 0.01 0.00 0.00 0.00 0.00 0.00 0.00 0.01 0.01 0.01 0.00 0.00 0.00 0.00 0.00 0.00 0.00 0.00 0.00 0.00 0.00 0.01 0.02 0.04 0.05 0.06 0.09 0.18 0.26 0.33 0.40 0.44
0.10 0.13 0.18 0.25 0.25 0.15 0.10 0.10 0.07 0.04 0.02 0.01 0.01 0.00 0.00 0.00 0.00 0.00 0.00 0.00 0.00 0.01 0.01 0.00 0.00 0.00 0.00 0.00 0.00 0.00 0.00 0.00 0.01 0.01 0.01 0.02 0.03 0.04 0.07 0.13 0.22 0.26 0.34 0.35
0.07 0.11 0.17 0.24 0.23 0.17 0.08 0.07 0.05 0.03 0.02 0.01 0.01 0.00 0.00 0.00 0.00 0.00 0.00 0.00 0.00 0.01 0.01 0.01 0.01 0.01 0.00 0.00 0.00 0.01 0.03 0.01 0.04 0.06 0.03 0.02 0.02 0.05 0.07 0.09 0.11 0.12 0.15 0.15

GEFSCGP_prec_meanprecacc_048.txt.gz
Total_Precipitation_Accumulation
0.12 0.32 0.49 0.42 0.34 0.29 0.23 0.20 0.15 0.10 0.11 0.08 0.08 0.08 0.09 0.10 0.12 0.11 0.08 0.08 0.06 0.04 0.03 0.03 0.03 0.04 0.08 0.17 0.25 0.39 0.70 1.06 1.17 1.01 0.89 0.84 0.78 0.65 0.51 0.45 0.49 0.57 0.56 0.54
0.07 0.17 0.18 0.14 0.16 0.20 0.23 0.25 0.21 0.15 0.11 0.08 0.06 0.05 0.05 0.06 0.08 0.09 0.08 0.08 0.07 0.05 0.03 0.02 0.03 0.05 0.10 0.23 0.36 0.49 0.71 1.07 1.20 1.19 1.16 1.13 1.08 0.93 0.79 0.73 0.68 0.72 0.72 0.83
0.04 0.05 0.05 0.09 0.16 0.24 0.27 0.29 0.25 0.20 0.12 0.09 0.06 0.03 0.03 0.03 0.03 0.04 0.06 0.07 0.06 0.04 0.03 0.03 0.03 0.05 0.08 0.17 0.28 0.42 0.56 0.81 1.03 1.17 1.27 1.35 1.36 1.25 1.14 1.05 0.94 0.92 0.92 1.00
0.02 0.02 0.04 0.07 0.10 0.14 0.21 0.15 0.11 0.09 0.09 0.09 0.06 0.06 0.02 0.02 0.02 0.03 0.04 0.04 0.05 0.05 0.04 0.03 0.04 0.04 0.06 0.10 0.18 0.29 0.45 0.67 0.86 1.01 1.23 1.47 1.56 1.53 1.40 1.24 1.11 1.08 1.06 1.08
0.00 0.01 0.02 0.04 0.06 0.09 0.10 0.06 0.06 0.07 0.07 0.07 0.06 0.06 0.02 0.01 0.02 0.02 0.03 0.03 0.04 0.04 0.04 0.05 0.05 0.06 0.07 0.10 0.13 0.21 0.34 0.54 0.75 0.90 1.07 1.28 1.37 1.43 1.45 1.20 1.07 1.10 1.09 1.07
0.00 0.00 0.00 0.01 0.02 0.04 0.05 0.06 0.05 0.05 0.07 0.07 0.04 0.07 0.05 0.03 0.02 0.02 0.02 0.02 0.03 0.05 0.07 0.09 0.11 0.13 0.16 0.17 0.20 0.27 0.35 0.44 0.56 0.67 0.76 0.85 0.99 1.14 1.39 1.31 1.20 1.26 1.23 1.08
0.00 0.00 0.00 0.00 0.01 0.02 0.03 0.08 0.12 0.12 0.12 0.08 0.05 0.09 0.09 0.06 0.03 0.03 0.03 0.04 0.05 0.08 0.11 0.16 0.20 0.23 0.25 0.26 0.26 0.30 0.36 0.41 0.43 0.46 0.49 0.58 0.68 0.75 1.04 1.26 1.18 1.06 1.07 1.03
0.00 0.00 0.00 0.00 0.01 0.04 0.04 0.09 0.16 0.18 0.16 0.14 0.12 0.17 0.15 0.08 0.06 0.06 0.06 0.08 0.09 0.11 0.17 0.25 0.34 0.37 0.38 0.36 0.33 0.33 0.37 0.40 0.41 0.38 0.35 0.39 0.44 0.47 0.54 0.69 0.78 0.76 0.73 0.79
0.01 0.01 0.00 0.00 0.01 0.03 0.07 0.10 0.13 0.19 0.16 0.16 0.16 0.22 0.21 0.12 0.11 0.12 0.11 0.14 0.17 0.21 0.30 0.40 0.48 0.51 0.47 0.43 0.36 0.33 0.37 0.43 0.43 0.40 0.38 0.36 0.35 0.38 0.45 0.44 0.50 0.63 0.62 0.59
0.04 0.02 0.01 0.01 0.02 0.03 0.05 0.09 0.16 0.26 0.29 0.24 0.23 0.31 0.31 0.24 0.24 0.22 0.22 0.23 0.30 0.37 0.43 0.51 0.58 0.60 0.55 0.46 0.34 0.29 0.30 0.36 0.49 0.60 0.55 0.46 0.43 0.47 0.67 0.70 0.50 0.47 0.54 0.53
0.17 0.13 0.04 0.04 0.06 0.10 0.13 0.20 0.25 0.32 0.34 0.41 0.47 0.51 0.45 0.41 0.40 0.40 0.39 0.39 0.47 0.54 0.54 0.57 0.61 0.63 0.60 0.46 0.34 0.29 0.27 0.31 0.37 0.40 0.41 0.41 0.48 0.54 0.73 0.91 0.80 0.56 0.46 0.44
0.22 0.28 0.15 0.09 0.13 0.17 0.23 0.34 0.48 0.65 0.61 0.56 0.66 0.67 0.53 0.43 0.44 0.45 0.43 0.39 0.43 0.51 0.53 0.55 0.56 0.53 0.48 0.37 0.29 0.24 0.22 0.27 0.33 0.33 0.31 0.33 0.39 0.49 0.52 0.52 0.54 0.44 0.29 0.23
0.33 0.46 0.37 0.26 0.32 0.32 0.41 0.45 0.50 0.61 0.67 0.67 0.72 0.71 0.50 0.41 0.37 0.37 0.40 0.42 0.41 0.39 0.38 0.37 0.36 0.35 0.33 0.30 0.28 0.23 0.23 0.27 0.30 0.34 0.35 0.33 0.31 0.32 0.30 0.24 0.19 0.19 0.18 0.15
0.33 0.42 0.47 0.47 0.53 0.59 0.59 0.50 0.44 0.58 0.74 0.68 0.66 0.63 0.50 0.44 0.40 0.42 0.41 0.41 0.40 0.35 0.30 0.30 0.31 0.32 0.34 0.35 0.32 0.26 0.24 0.29 0.38 0.52 0.54 0.50 0.45 0.38 0.33 0.27 0.20 0.16 0.13 0.13
0.22 0.25 0.26 0.25 0.26 0.38 0.44 0.37 0.37 0.44 0.49 0.61 0.58 0.57 0.46 0.42 0.45 0.49 0.45 0.39 0.35 0.32 0.28 0.26 0.26 0.29 0.29 0.30 0.31 0.27 0.24 0.31 0.39 0.52 0.61 0.59 0.56 0.51 0.45 0.35 0.26 0.23 0.19 0.17
0.15 0.19 0.18 0.16 0.17 0.25 0.32 0.33 0.34 0.34 0.38 0.47 0.53 0.51 0.40 0.35 0.34 0.34 0.32 0.27 0.25 0.25 0.22 0.20 0.21 0.22 0.21 0.21 0.21 0.22 0.26 0.35 0.41 0.47 0.56 0.69 0.70 0.58 0.48 0.39 0.33 0.30 0.28 0.25
0.13 0.23 0.30 0.24 0.21 0.23 0.48 0.50 0.51 0.52 0.45 0.43 0.37 0.28 0.19 0.19 0.20 0.23 0.23 0.23 0.27 0.23 0.18 0.17 0.17 0.19 0.20 0.21 0.24 0.26 0.31 0.39 0.39 0.42 0.52 0.71 0.71 0.57 0.49 0.50 0.47 0.42 0.39 0.38
0.10 0.22 0.32 0.26 0.29 0.57 0.82 0.61 0.58 0.52 0.31 0.17 0.11 0.10 0.10 0.16 0.15 0.13 0.13 0.16 0.20 0.17 0.14 0.13 0.12 0.12 0.13 0.16 0.20 0.23 0.27 0.30 0.32 0.36 0.42 0.54 0.55 0.52 0.53 0.52 0.49 0.43 0.39 0.38
0.12 0.23 0.33 0.29 0.33 0.59 0.64 0.41 0.33 0.32 0.20 0.06 0.05 0.06 0.09 0.12 0.09 0.05 0.06 0.09 0.10 0.09 0.07 0.06 0.05 0.05 0.05 0.05 0.07 0.10 0.12 0.15 0.19 0.25 0.32 0.39 0.41 0.45 0.46 0.45 0.45 0.42 0.38 0.38
0.25 0.30 0.43 0.44 0.54 0.57 0.31 0.16 0.15 0.22 0.25 0.06 0.03 0.03 0.04 0.04 0.05 0.03 0.03 0.04 0.05 0.04 0.03 0.02 0.01 0.01 0.01 0.01 0.01 0.03 0.05 0.08 0.12 0.17 0.23 0.29 0.32 0.36 0.39 0.44 0.46 0.45 0.41 0.38
0.22 0.30 0.38 0.46 0.65 0.54 0.21 0.11 0.11 0.21 0.26 0.08 0.03 0.02 0.02 0.02 0.02 0.02 0.02 0.03 0.03 0.02 0.01 0.01 0.00 0.00 0.00 0.00 0.00 0.02 0.05 0.07 0.07 0.09 0.14 0.20 0.27 0.35 0.43 0.48 0.48 0.49 0.46 0.41
0.24 0.26 0.28 0.38 0.54 0.49 0.20 0.15 0.18 0.17 0.08 0.03 0.02 0.01 0.01 0.01 0.00 0.00 0.01 0.02 0.02 0.01 0.01 0.01 0.00 0.00 0.00 0.00 0.00 0.00 0.02 0.03 0.03 0.05 0.10 0.16 0.25 0.32 0.40 0.48 0.50 0.50 0.50 0.48
0.27 0.30 0.32 0.43 0.57 0.38 0.23 0.20 0.19 0.12 0.06 0.02 0.01 0.01 0.00 0.00 0.00 0.00 0.01 0.01 0.01 0.01 0.00 0.00 0.00 0.00 0.00 0.00 0.00 0.00 0.00 0.00 0.00 0.02 0.05 0.10 0.14 0.19 0.23 0.29 0.37 0.44 0.48 0.48
0.15 0.17 0.23 0.32 0.32 0.20 0.18 0.16 0.12 0.07 0.04 0.02 0.01 0.00 0.00 0.00 0.00 0.00 0.00 0.01 0.01 0.01 0.01 0.00 0.00 0.00 0.00 0.00 0.00 0.00 0.00 0.00 0.00 0.01 0.02 0.04 0.05 0.06 0.09 0.18 0.26 0.33 0.40 0.44
0.10 0.13 0.18 0.25 0.25 0.15 0.10 0.10 0.07 0.04 0.02 0.01 0.01 0.00 0.00 0.00 0.00 0.00 0.00 0.00 0.01 0.01 0.01 0.00 0.00 0.00 0.00 0.00 0.00 0.00 0.00 0.00 0.01 0.01 0.01 0.02 0.03 0.04 0.07 0.13 0.22 0.26 0.34 0.36
0.07 0.11 0.17 0.24 0.23 0.17 0.08 0.07 0.05 0.03 0.02 0.01 0.01 0.00 0.00 0.00 0.00 0.00 0.00 0.00 0.00 0.01 0.01 0.01 0.01 0.01 0.00 0.00 0.00 0.01 0.03 0.02 0.04 0.06 0.03 0.02 0.02 0.05 0.07 0.09 0.11 0.12 0.15 0.16

GEFSCGP_prec_meanprecacc_054.txt.gz
Total_Precipitation_Accumulation
0.12 0.32 0.50 0.42 0.34 0.29 0.23 0.20 0.16 0.10 0.11 0.09 0.08 0.08 0.09 0.11 0.12 0.11 0.09 0.08 0.06 0.05 0.04 0.04 0.03 0.05 0.09 0.18 0.26 0.40 0.70 1.07 1.20 1.06 0.96 0.93 0.87 0.72 0.58 0.52 0.55 0.63 0.64 0.62
0.07 0.17 0.18 0.14 0.16 0.20 0.23 0.25 0.22 0.15 0.11 0.09 0.06 0.05 0.05 0.06 0.09 0.10 0.09 0.09 0.08 0.06 0.04 0.03 0.03 0.05 0.10 0.24 0.37 0.50 0.71 1.09 1.24 1.29 1.33 1.33 1.26 1.06 0.93 0.86 0.80 0.85 0.86 0.99
0.04 0.05 0.05 0.09 0.16 0.24 0.27 0.29 0.25 0.20 0.12 0.09 0.06 0.04 0.03 0.04 0.05 0.06 0.07 0.08 0.07 0.05 0.04 0.03 0.04 0.05 0.08 0.17 0.28 0.42 0.57 0.84 1.11 1.30 1.46 1.59 1.63 1.49 1.35 1.21 1.10 1.08 1.10 1.21
0.02 0.02 0.04 0.07 0.10 0.14 0.21 0.15 0.11 0.09 0.09 0.09 0.07 0.08 0.04 0.05 0.07 0.07 0.07 0.07 0.06 0.05 0.04 0.05 0.06 0.06 0.07 0.11 0.18 0.31 0.48 0.72 0.94 1.12 1.40 1.70 1.86 1.86 1.68 1.48 1.33 1.26 1.24 1.27
0.00 0.01 0.02 0.04 0.06 0.09 0.10 0.06 0.06 0.07 0.08 0.07 0.06 0.07 0.06 0.07 0.09 0.09 0.09 0.08 0.07 0.06 0.06 0.07 0.07 0.08 0.09 0.10 0.14 0.23 0.39 0.61 0.84 1.03 1.26 1.53 1.66 1.76 1.81 1.55 1.39 1.37 1.30 1.27
0.00 0.00 0.00 0.01 0.02 0.04 0.05 0.06 0.05 0.05 0.07 0.07 0.05 0.08 0.13 0.13 0.10 0.08 0.07 0.07 0.07 0.08 0.10 0.12 0.15 0.18 0.20 0.19 0.23 0.31 0.39 0.49 0.64 0.78 0.93 1.07 1.29 1.49 1.78 1.70 1.54 1.56 1.46 1.28
0.00 0.00 0.00 0.00 0.01 0.02 0.03 0.08 0.12 0.12 0.13 0.10 0.07 0.15 0.25 0.20 0.12 0.10 0.10 0.09 0.08 0.11 0.15 0.20 0.26 0.31 0.33 0.30 0.29 0.33 0.40 0.45 0.50 0.56 0.64 0.77 0.93 1.03 1.34 1.56 1.49 1.35 1.32 1.23
0.00 0.00 0.00 0.00 0.01 0.04 0.04 0.09 0.17 0.19 0.18 0.17 0.17 0.30 0.35 0.23 0.15 0.14 0.13 0.14 0.14 0.16 0.22 0.34 0.44 0.48 0.47 0.42 0.38 0.38 0.43 0.46 0.49 0.50 0.49 0.54 0.61 0.66 0.75 0.90 1.00 0.97 0.94 0.99
0.01 0.01 0.00 0.00 0.01 0.03 0.07 0.10 0.13 0.20 0.18 0.19 0.25 0.40 0.38 0.23 0.20 0.21 0.21 0.20 0.25 0.29 0.39 0.52 0.62 0.64 0.58 0.52 0.44 0.42 0.45 0.51 0.51 0.50 0.50 0.50 0.51 0.54 0.62 0.61 0.65 0.78 0.77 0.73
0.04 0.02 0.01 0.01 0.02 0.03 0.06 0.10 0.17 0.28 0.32 0.29 0.30 0.43 0.44 0.32 0.31 0.30 0.34 0.35 0.44 0.51 0.58 0.68 0.77 0.76 0.67 0.57 0.45 0.41 0.43 0.49 0.62 0.73 0.68 0.59 0.60 0.66 0.86 0.86 0.64 0.59 0.66 0.67
0.17 0.13 0.04 0.04 0.06 0.10 0.14 0.21 0.27 0.35 0.37 0.47 0.55 0.60 0.54 0.51 0.51 0.53 0.56 0.57 0.65 0.74 0.75 0.74 0.80 0.82 0.73 0.56 0.46 0.41 0.43 0.49 0.55 0.55 0.55 0.54 0.62 0.70 0.93 1.08 0.95 0.70 0.58 0.56
0.22 0.28 0.15 0.09 0.13 0.17 0.23 0.34 0.49 0.69 0.65 0.61 0.74 0.76 0.61 0.53 0.57 0.59 0.60 0.58 0.63 0.72 0.73 0.74 0.76 0.74 0.63 0.48 0.39 0.36 0.36 0.43 0.50 0.47 0.44 0.47 0.54 0.63 0.70 0.69 0.66 0.55 0.39 0.32
0.33 0.46 0.38 0.26 0.32 0.32 0.41 0.45 0.51 0.63 0.71 0.71 0.79 0.80 0.57 0.48 0.46 0.49 0.53 0.55 0.57 0.56 0.56 0.54 0.53 0.51 0.49 0.47 0.44 0.37 0.36 0.41 0.44 0.46 0.49 0.50 0.51 0.51 0.46 0.39 0.32 0.29 0.27 0.25
0.33 0.42 0.47 0.47 0.53 0.59 0.59 0.50 0.45 0.59 0.77 0.72 0.71 0.69 0.56 0.51 0.47 0.50 0.51 0.52 0.54 0.48 0.41 0.41 0.41 0.41 0.44 0.46 0.45 0.39 0.36 0.40 0.48 0.63 0.67 0.67 0.62 0.58 0.52 0.43 0.34 0.28 0.24 0.23
0.22 0.25 0.26 0.25 0.27 0.39 0.44 0.38 0.37 0.44 0.51 0.64 0.62 0.61 0.50 0.47 0.52 0.55 0.51 0.47 0.42 0.37 0.33 0.33 0.33 0.34 0.33 0.35 0.37 0.35 0.32 0.37 0.45 0.59 0.69 0.69 0.67 0.63 0.60 0.50 0.39 0.35 0.29 0.25
0.15 0.19 0.18 0.16 0.18 0.25 0.32 0.34 0.35 0.35 0.39 0.48 0.55 0.54 0.42 0.37 0.36 0.36 0.34 0.29 0.27 0.27 0.24 0.22 0.23 0.24 0.23 0.22 0.23 0.24 0.30 0.38 0.44 0.50 0.59 0.74 0.76 0.65 0.57 0.48 0.41 0.37 0.35 0.31
0.13 0.23 0.30 0.25 0.21 0.23 0.48 0.51 0.51 0.52 0.46 0.44 0.39 0.30 0.20 0.19 0.21 0.24 0.24 0.24 0.28 0.24 0.19 0.17 0.18 0.19 0.20 0.21 0.24 0.27 0.33 0.41 0.40 0.44 0.54 0.74 0.74 0.61 0.53 0.56 0.55 0.48 0.46 0.45
0.10 0.22 0.32 0.27 0.29 0.57 0.82 0.61 0.58 0.52 0.31 0.17 0.12 0.12 0.11 0.16 0.15 0.13 0.13 0.17 0.20 0.18 0.15 0.13 0.12 0.12 0.13 0.16 0.20 0.23 0.27 0.31 0.33 0.37 0.44 0.57 0.58 0.55 0.57 0.57 0.54 0.48 0.44 0.45
0.12 0.23 0.33 0.29 0.33 0.60 0.64 0.41 0.33 0.33 0.21 0.07 0.06 0.07 0.09 0.12 0.09 0.06 0.06 0.09 0.10 0.09 0.07 0.06 0.05 0.05 0.05 0.05 0.07 0.10 0.12 0.15 0.19 0.25 0.32 0.40 0.42 0.45 0.47 0.47 0.48 0.45 0.41 0.41
0.25 0.30 0.43 0.44 0.54 0.58 0.31 0.16 0.15 0.22 0.26 0.06 0.03 0.03 0.04 0.05 0.08 0.04 0.03 0.04 0.05 0.04 0.03 0.02 0.01 0.01 0.01 0.01 0.01 0.03 0.05 0.08 0.12 0.18 0.23 0.30 0.33 0.36 0.39 0.44 0.47 0.47 0.44 0.40
0.22 0.30 0.38 0.46 0.65 0.54 0.21 0.11 0.11 0.21 0.27 0.08 0.03 0.02 0.02 0.02 0.03 0.02 0.02 0.03 0.03 0.02 0.02 0.01 0.00 0.00 0.00 0.00 0.00 0.02 0.05 0.07 0.07 0.09 0.14 0.20 0.28 0.35 0.43 0.48 0.49 0.50 0.48 0.43
0.24 0.26 0.28 0.38 0.54 0.49 0.20 0.15 0.18 0.17 0.08 0.03 0.02 0.01 0.01 0.01 0.01 0.01 0.01 0.02 0.02 0.02 0.01 0.01 0.00 0.00 0.00 0.00 0.00 0.01 0.02 0.03 0.03 0.06 0.10 0.17 0.25 0.32 0.40 0.48 0.50 0.50 0.50 0.49
0.27 0.30 0.32 0.43 0.57 0.38 0.23 0.20 0.19 0.12 0.06 0.02 0.01 0.01 0.00 0.00 0.00 0.00 0.01 0.01 0.02 0.02 0.01 0.00 0.00 0.00 0.00 0.00 0.00 0.00 0.00 0.00 0.00 0.02 0.06 0.10 0.15 0.19 0.23 0.29 0.37 0.44 0.48 0.49
0.15 0.17 0.23 0.32 0.32 0.20 0.18 0.16 0.12 0.07 0.04 0.02 0.01 0.00 0.00 0.00 0.00 0.00 0.00 0.01 0.01 0.02 0.01 0.00 0.00 0.00 0.00 0.00 0.00 0.00 0.00 0.00 0.00 0.01 0.03 0.04 0.06 0.06 0.09 0.18 0.27 0.33 0.40 0.45
0.10 0.13 0.18 0.25 0.25 0.15 0.10 0.10 0.07 0.04 0.02 0.01 0.01 0.00 0.00 0.00 0.00 0.00 0.00 0.00 0.01 0.01 0.01 0.00 0.00 0.00 0.00 0.00 0.00 0.00 0.00 0.00 0.01 0.01 0.01 0.02 0.03 0.05 0.07 0.14 0.22 0.26 0.34 0.36
0.07 0.11 0.17 0.24 0.23 0.17 0.08 0.07 0.05 0.03 0.02 0.01 0.01 0.00 0.00 0.00 0.00 0.00 0.00 0.00 0.01 0.01 0.01 0.01 0.01 0.01 0.00 0.00 0.00 0.01 0.03 0.02 0.04 0.06 0.03 0.02 0.03 0.05 0.08 0.11 0.12 0.12 0.15 0.16

GEFSCGP_prec_meanprecacc_060.txt.gz
Total_Precipitation_Accumulation
0.13 0.33 0.50 0.42 0.34 0.29 0.24 0.21 0.16 0.11 0.11 0.09 0.09 0.10 0.11 0.14 0.15 0.13 0.11 0.10 0.09 0.07 0.06 0.05 0.06 0.10 0.16 0.24 0.32 0.48 0.81 1.21 1.35 1.22 1.18 1.23 1.27 1.12 0.88 0.77 0.74 0.75 0.74 0.72
0.07 0.18 0.18 0.14 0.16 0.20 0.23 0.25 0.22 0.15 0.11 0.09 0.07 0.06 0.07 0.08 0.11 0.11 0.11 0.12 0.12 0.09 0.06 0.04 0.05 0.09 0.14 0.28 0.43 0.56 0.80 1.21 1.38 1.46 1.55 1.72 1.83 1.64 1.36 1.18 1.06 1.06 1.02 1.12
0.04 0.05 0.05 0.09 0.16 0.24 0.27 0.29 0.25 0.20 0.12 0.09 0.06 0.05 0.05 0.07 0.07 0.08 0.10 0.13 0.13 0.11 0.09 0.09 0.08 0.11 0.15 0.22 0.33 0.48 0.65 0.93 1.24 1.49 1.72 1.98 2.15 2.09 1.86 1.60 1.47 1.41 1.35 1.40
0.02 0.02 0.04 0.07 0.10 0.14 0.21 0.15 0.11 0.09 0.09 0.09 0.07 0.08 0.06 0.08 0.10 0.11 0.12 0.13 0.14 0.14 0.12 0.14 0.14 0.13 0.14 0.18 0.23 0.35 0.53 0.78 1.02 1.26 1.62 2.03 2.30 2.38 2.23 1.98 1.80 1.71 1.64 1.62
0.00 0.01 0.02 0.04 0.06 0.09 0.10 0.06 0.06 0.07 0.08 0.07 0.06 0.08 0.08 0.10 0.14 0.15 0.15 0.15 0.14 0.14 0.15 0.18 0.16 0.16 0.14 0.14 0.17 0.27 0.43 0.66 0.91 1.14 1.46 1.84 2.07 2.24 2.35 2.10 1.89 1.85 1.76 1.66
0.00 0.00 0.00 0.01 0.02 0.04 0.05 0.06 0.05 0.05 0.07 0.07 0.05 0.09 0.16 0.17 0.15 0.14 0.13 0.14 0.15 0.18 0.23 0.25 0.28 0.28 0.27 0.24 0.26 0.34 0.43 0.55 0.70 0.86 1.06 1.27 1.56 1.80 2.14 2.09 1.98 1.98 1.85 1.62
0.00 0.00 0.00 0.00 0.01 0.02 0.03 0.08 0.12 0.12 0.13 0.10 0.07 0.16 0.28 0.24 0.18 0.16 0.16 0.17 0.19 0.21 0.24 0.30 0.38 0.42 0.42 0.37 0.34 0.36 0.44 0.49 0.54 0.62 0.72 0.89 1.08 1.22 1.58 1.86 1.82 1.68 1.63 1.53
0.00 0.00 0.00 0.00 0.01 0.04 0.04 0.09 0.17 0.19 0.19 0.18 0.18 0.32 0.40 0.29 0.21 0.18 0.18 0.19 0.22 0.24 0.31 0.45 0.58 0.60 0.59 0.51 0.44 0.44 0.49 0.51 0.53 0.55 0.55 0.63 0.72 0.80 0.92 1.09 1.20 1.19 1.17 1.24
0.01 0.01 0.00 0.00 0.01 0.03 0.07 0.10 0.13 0.20 0.18 0.20 0.28 0.43 0.41 0.25 0.23 0.24 0.25 0.26 0.34 0.42 0.49 0.62 0.75 0.77 0.70 0.63 0.52 0.48 0.51 0.57 0.56 0.54 0.55 0.58 0.62 0.67 0.73 0.73 0.77 0.91 0.92 0.89
0.04 0.02 0.01 0.01 0.02 0.03 0.06 0.10 0.17 0.28 0.33 0.30 0.31 0.44 0.46 0.35 0.35 0.35 0.40 0.42 0.52 0.62 0.69 0.77 0.87 0.88 0.77 0.67 0.55 0.50 0.51 0.58 0.71 0.81 0.75 0.67 0.72 0.81 1.00 1.01 0.81 0.74 0.82 0.83
0.17 0.13 0.04 0.04 0.06 0.10 0.14 0.21 0.27 0.35 0.38 0.48 0.57 0.62 0.56 0.55 0.55 0.57 0.61 0.64 0.71 0.82 0.83 0.81 0.87 0.92 0.83 0.65 0.57 0.51 0.51 0.58 0.67 0.67 0.64 0.61 0.69 0.79 1.04 1.23 1.13 0.87 0.78 0.76
0.22 0.28 0.15 0.09 0.13 0.17 0.23 0.34 0.50 0.69 0.66 0.62 0.75 0.78 0.63 0.56 0.59 0.62 0.63 0.62 0.65 0.76 0.78 0.79 0.81 0.78 0.67 0.53 0.46 0.43 0.42 0.50 0.58 0.54 0.52 0.55 0.60 0.70 0.79 0.83 0.82 0.71 0.57 0.51
0.33 0.46 0.38 0.26 0.32 0.32 0.41 0.45 0.51 0.63 0.71 0.72 0.80 0.83 0.60 0.51 0.47 0.50 0.54 0.57 0.59 0.59 0.59 0.58 0.58 0.55 0.52 0.50 0.48 0.43 0.41 0.46 0.51 0.52 0.56 0.58 0.57 0.58 0.54 0.49 0.45 0.45 0.45 0.44
0.33 0.42 0.47 0.47 0.53 0.59 0.59 0.50 0.45 0.60 0.78 0.73 0.73 0.72 0.58 0.51 0.48 0.51 0.52 0.53 0.56 0.50 0.43 0.43 0.44 0.43 0.45 0.48 0.47 0.42 0.39 0.43 0.53 0.68 0.74 0.75 0.71 0.66 0.62 0.55 0.47 0.43 0.45 0.47
0.22 0.25 0.26 0.25 0.27 0.39 0.44 0.38 0.38 0.45 0.51 0.66 0.65 0.64 0.51 0.48 0.52 0.56 0.53 0.48 0.43 0.38 0.34 0.34 0.34 0.36 0.34 0.36 0.38 0.37 0.34 0.39 0.47 0.61 0.73 0.76 0.74 0.71 0.67 0.58 0.49 0.47 0.44 0.42
0.15 0.19 0.18 0.16 0.18 0.25 0.32 0.34 0.35 0.35 0.40 0.50 0.57 0.55 0.43 0.38 0.37 0.37 0.35 0.30 0.28 0.28 0.25 0.23 0.24 0.25 0.24 0.23 0.24 0.25 0.31 0.40 0.46 0.51 0.61 0.76 0.80 0.70 0.63 0.55 0.49 0.47 0.45 0.41
0.13 0.23 0.30 0.25 0.21 0.23 0.48 0.51 0.51 0.52 0.46 0.45 0.40 0.32 0.21 0.20 0.22 0.25 0.25 0.25 0.29 0.25 0.20 0.18 0.18 0.19 0.20 0.22 0.24 0.28 0.34 0.43 0.42 0.46 0.57 0.76 0.76 0.63 0.57 0.61 0.61 0.54 0.51 0.51
0.10 0.22 0.32 0.27 0.29 0.57 0.82 0.61 0.58 0.52 0.31 0.17 0.12 0.12 0.11 0.17 0.16 0.14 0.14 0.17 0.21 0.18 0.15 0.13 0.13 0.12 0.13 0.16 0.20 0.23 0.27 0.31 0.33 0.37 0.45 0.59 0.61 0.57 0.60 0.62 0.58 0.50 0.46 0.46
0.12 0.23 0.33 0.29 0.33 0.60 0.64 0.41 0.33 0.33 0.21 0.07 0.06 0.07 0.10 0.12 0.11 0.08 0.08 0.09 0.10 0.10 0.07 0.06 0.06 0.05 0.05 0.05 0.07 0.10 0.12 0.15 0.19 0.25 0.32 0.40 0.43 0.46 0.49 0.49 0.51 0.47 0.43 0.43
0.25 0.30 0.43 0.44 0.54 0.58 0.31 0.16 0.15 0.22 0.26 0.06 0.03 0.04 0.04 0.06 0.09 0.06 0.04 0.05 0.05 0.05 0.03 0.02 0.01 0.01 0.01 0.01 0.01 0.03 0.05 0.08 0.12 0.18 0.23 0.30 0.33 0.36 0.39 0.45 0.48 0.48 0.44 0.41
0.22 0.30 0.38 0.46 0.65 0.54 0.21 0.11 0.11 0.21 0.27 0.08 0.03 0.02 0.02 0.02 0.04 0.02 0.03 0.03 0.04 0.03 0.02 0.01 0.01 0.00 0.00 0.00 0.01 0.02 0.05 0.07 0.07 0.09 0.14 0.21 0.28 0.35 0.44 0.49 0.49 0.52 0.49 0.43
0.24 0.26 0.28 0.38 0.54 0.49 0.20 0.15 0.18 0.17 0.08 0.03 0.02 0.01 0.01 0.01 0.01 0.01 0.02 0.02 0.03 0.03 0.02 0.01 0.01 0.00 0.00 0.01 0.01 0.01 0.02 0.03 0.04 0.06 0.10 0.17 0.25 0.32 0.41 0.49 0.50 0.51 0.51 0.50
0.27 0.30 0.32 0.43 0.57 0.38 0.23 0.20 0.19 0.12 0.06 0.02 0.01 0.01 0.00 0.00 0.00 0.00 0.01 0.02 0.02 0.03 0.02 0.01 0.01 0.01 0.00 0.01 0.01 0.00 0.00 0.00 0.01 0.02 0.06 0.11 0.15 0.19 0.24 0.30 0.37 0.44 0.48 0.50
0.15 0.17 0.23 0.32 0.32 0.20 0.18 0.16 0.12 0.07 0.04 0.02 0.01 0.00 0.00 0.00 0.00 0.00 0.01 0.01 0.02 0.02 0.01 0.01 0.01 0.01 0.01 0.00 0.00 0.00 0.00 0.00 0.00 0.01 0.03 0.05 0.06 0.07 0.09 0.18 0.27 0.33 0.40 0.45
0.10 0.13 0.18 0.25 0.25 0.15 0.10 0.10 0.07 0.04 0.02 0.01 0.01 0.00 0.00 0.00 0.00 0.00 0.00 0.00 0.01 0.01 0.01 0.01 0.01 0.01 0.00 0.00 0.00 0.00 0.01 0.01 0.01 0.01 0.01 0.02 0.04 0.05 0.08 0.14 0.22 0.26 0.34 0.36
0.07 0.11 0.17 0.24 0.23 0.17 0.08 0.07 0.05 0.03 0.02 0.01 0.01 0.00 0.00 0.00 0.00 0.00 0.00 0.00 0.01 0.01 0.01 0.01 0.01 0.01 0.00 0.00 0.00 0.01 0.03 0.02 0.04 0.06 0.03 0.02 0.03 0.06 0.08 0.11 0.12 0.12 0.15 0.16

GEFSCGP_prec_meanprecacc_066.txt.gz
Total_Precipitation_Accumulation
0.13 0.33 0.50 0.42 0.34 0.29 0.24 0.21 0.16 0.11 0.11 0.09 0.09 0.11 0.12 0.14 0.15 0.14 0.12 0.12 0.11 0.08 0.08 0.08 0.08 0.12 0.18 0.27 0.36 0.53 0.86 1.28 1.45 1.36 1.34 1.42 1.50 1.44 1.29 1.22 1.16 1.11 1.02 0.95
0.08 0.18 0.18 0.14 0.16 0.20 0.23 0.25 0.22 0.15 0.11 0.09 0.07 0.07 0.08 0.09 0.11 0.12 0.12 0.13 0.13 0.10 0.07 0.06 0.07 0.11 0.16 0.31 0.45 0.58 0.83 1.26 1.46 1.57 1.68 1.88 2.07 1.95 1.77 1.69 1.59 1.57 1.47 1.50
0.04 0.05 0.05 0.09 0.16 0.24 0.27 0.29 0.25 0.20 0.12 0.09 0.07 0.05 0.05 0.07 0.07 0.08 0.11 0.13 0.14 0.12 0.10 0.10 0.10 0.13 0.17 0.26 0.38 0.52 0.68 0.97 1.28 1.55 1.81 2.11 2.33 2.30 2.16 1.98 1.91 1.89 1.84 1.87
0.02 0.02 0.04 0.07 0.10 0.14 0.21 0.15 0.11 0.09 0.09 0.09 0.07 0.08 0.06 0.09 0.11 0.11 0.12 0.13 0.15 0.15 0.14 0.15 0.15 0.14 0.16 0.22 0.28 0.40 0.58 0.83 1.07 1.31 1.70 2.13 2.42 2.53 2.44 2.29 2.19 2.11 2.08 2.06
0.00 0.01 0.02 0.04 0.06 0.09 0.10 0.06 0.06 0.07 0.08 0.07 0.06 0.08 0.08 0.11 0.14 0.15 0.15 0.15 0.15 0.15 0.17 0.20 0.19 0.20 0.20 0.20 0.23 0.33 0.50 0.73 0.96 1.18 1.51 1.91 2.16 2.36 2.52 2.33 2.16 2.15 2.11 2.04
0.00 0.00 0.00 0.01 0.02 0.04 0.05 0.06 0.05 0.05 0.07 0.07 0.05 0.10 0.16 0.17 0.16 0.14 0.13 0.15 0.17 0.19 0.24 0.27 0.34 0.37 0.36 0.30 0.34 0.42 0.50 0.62 0.77 0.91 1.12 1.34 1.63 1.88 2.24 2.21 2.12 2.19 2.10 1.90
0.00 0.00 0.00 0.00 0.01 0.02 0.03 0.08 0.12 0.12 0.13 0.10 0.07 0.17 0.28 0.25 0.18 0.17 0.17 0.18 0.20 0.22 0.25 0.33 0.45 0.48 0.49 0.43 0.41 0.43 0.51 0.56 0.60 0.69 0.79 0.94 1.13 1.28 1.64 1.94 1.93 1.82 1.80 1.70
0.00 0.00 0.00 0.00 0.01 0.04 0.04 0.09 0.17 0.19 0.19 0.18 0.19 0.33 0.41 0.30 0.21 0.18 0.18 0.20 0.22 0.26 0.33 0.48 0.63 0.66 0.65 0.57 0.50 0.49 0.56 0.58 0.59 0.62 0.62 0.67 0.76 0.86 0.97 1.15 1.28 1.28 1.28 1.37
0.01 0.01 0.00 0.00 0.01 0.03 0.07 0.10 0.13 0.20 0.18 0.20 0.29 0.45 0.42 0.26 0.24 0.25 0.25 0.26 0.35 0.44 0.53 0.66 0.79 0.82 0.74 0.67 0.58 0.56 0.60 0.67 0.65 0.64 0.63 0.64 0.68 0.71 0.78 0.78 0.84 0.99 1.00 0.99
0.04 0.02 0.01 0.01 0.02 0.03 0.06 0.10 0.17 0.28 0.33 0.30 0.33 0.45 0.46 0.36 0.36 0.36 0.40 0.43 0.53 0.65 0.73 0.81 0.93 0.94 0.81 0.70 0.59 0.57 0.59 0.68 0.84 0.93 0.85 0.75 0.81 0.89 1.07 1.07 0.87 0.80 0.89 0.90
0.17 0.13 0.04 0.04 0.06 0.10 0.14 0.21 0.27 0.35 0.38 0.48 0.58 0.62 0.57 0.56 0.56 0.58 0.61 0.64 0.72 0.84 0.85 0.83 0.90 0.96 0.86 0.67 0.60 0.54 0.54 0.64 0.75 0.77 0.78 0.74 0.79 0.86 1.10 1.29 1.20 0.96 0.86 0.85
0.22 0.28 0.15 0.09 0.13 0.17 0.23 0.34 0.50 0.69 0.66 0.62 0.75 0.79 0.64 0.57 0.61 0.63 0.63 0.62 0.67 0.78 0.79 0.80 0.82 0.80 0.70 0.55 0.48 0.45 0.46 0.54 0.62 0.59 0.62 0.67 0.68 0.76 0.85 0.91 0.91 0.78 0.65 0.60
0.33 0.46 0.38 0.26 0.32 0.32 0.41 0.45 0.51 0.63 0.71 0.72 0.80 0.83 0.61 0.53 0.49 0.52 0.55 0.57 0.59 0.60 0.60 0.59 0.59 0.56 0.54 0.52 0.50 0.45 0.44 0.50 0.55 0.56 0.60 0.64 0.65 0.65 0.62 0.57 0.53 0.54 0.53 0.51
0.33 0.42 0.47 0.47 0.53 0.59 0.59 0.50 0.45 0.60 0.78 0.73 0.74 0.73 0.60 0.53 0.49 0.52 0.53 0.54 0.56 0.50 0.43 0.43 0.45 0.45 0.47 0.48 0.49 0.45 0.42 0.47 0.57 0.71 0.77 0.80 0.78 0.73 0.68 0.62 0.55 0.53 0.55 0.56
0.22 0.25 0.26 0.25 0.27 0.39 0.44 0.38 0.38 0.45 0.51 0.66 0.65 0.64 0.52 0.49 0.53 0.56 0.54 0.49 0.45 0.39 0.34 0.35 0.35 0.37 0.36 0.37 0.39 0.40 0.38 0.43 0.50 0.63 0.74 0.78 0.78 0.76 0.71 0.63 0.55 0.54 0.51 0.48
0.15 0.19 0.18 0.16 0.18 0.25 0.32 0.34 0.35 0.35 0.40 0.50 0.57 0.55 0.43 0.39 0.38 0.38 0.36 0.31 0.29 0.29 0.26 0.24 0.24 0.26 0.25 0.24 0.24 0.26 0.32 0.41 0.46 0.53 0.62 0.77 0.82 0.73 0.67 0.58 0.54 0.53 0.50 0.46
0.13 0.23 0.30 0.25 0.21 0.23 0.48 0.51 0.51 0.52 0.46 0.45 0.40 0.32 0.21 0.20 0.23 0.26 0.26 0.26 0.29 0.25 0.20 0.18 0.19 0.20 0.21 0.22 0.25 0.28 0.34 0.43 0.43 0.47 0.58 0.77 0.77 0.65 0.60 0.64 0.64 0.57 0.54 0.54
0.10 0.22 0.32 0.27 0.29 0.57 0.82 0.61 0.58 0.52 0.31 0.17 0.13 0.12 0.12 0.17 0.17 0.15 0.16 0.19 0.22 0.19 0.15 0.13 0.13 0.13 0.14 0.16 0.21 0.24 0.28 0.31 0.33 0.37 0.46 0.61 0.64 0.62 0.64 0.64 0.60 0.51 0.47 0.47
0.12 0.23 0.33 0.29 0.33 0.60 0.64 0.41 0.33 0.33 0.21 0.07 0.06 0.08 0.10 0.12 0.11 0.09 0.09 0.10 0.11 0.11 0.07 0.06 0.06 0.05 0.05 0.05 0.07 0.10 0.13 0.16 0.19 0.25 0.33 0.42 0.45 0.50 0.52 0.51 0.52 0.48 0.43 0.43
0.25 0.30 0.43 0.44 0.54 0.58 0.31 0.16 0.15 0.22 0.26 0.06 0.03 0.04 0.04 0.06 0.09 0.06 0.04 0.05 0.05 0.05 0.04 0.02 0.01 0.01 0.01 0.01 0.01 0.03 0.05 0.08 0.12 0.18 0.25 0.32 0.34 0.38 0.41 0.46 0.49 0.49 0.45 0.41
0.22 0.30 0.38 0.46 0.65 0.54 0.21 0.11 0.11 0.21 0.27 0.08 0.03 0.02 0.02 0.02 0.04 0.02 0.03 0.04 0.04 0.03 0.03 0.01 0.01 0.00 0.00 0.01 0.01 0.02 0.05 0.07 0.08 0.10 0.15 0.22 0.29 0.36 0.44 0.50 0.51 0.52 0.49 0.43
0.24 0.26 0.28 0.38 0.54 0.49 0.20 0.15 0.18 0.17 0.08 0.03 0.02 0.01 0.01 0.01 0.01 0.01 0.02 0.02 0.03 0.03 0.02 0.01 0.01 0.00 0.00 0.01 0.01 0.01 0.02 0.03 0.04 0.06 0.10 0.17 0.25 0.33 0.41 0.50 0.52 0.51 0.52 0.50
0.27 0.30 0.32 0.43 0.57 0.38 0.23 0.20 0.19 0.12 0.06 0.02 0.01 0.01 0.00 0.00 0.00 0.00 0.01 0.02 0.02 0.03 0.02 0.01 0.01 0.01 0.00 0.01 0.01 0.00 0.00 0.00 0.01 0.02 0.06 0.11 0.15 0.19 0.24 0.31 0.39 0.45 0.49 0.50
0.15 0.17 0.23 0.32 0.32 0.20 0.18 0.16 0.12 0.07 0.04 0.02 0.01 0.00 0.00 0.00 0.00 0.00 0.01 0.01 0.02 0.02 0.01 0.01 0.01 0.01 0.01 0.00 0.00 0.00 0.00 0.00 0.00 0.01 0.03 0.05 0.06 0.07 0.10 0.19 0.27 0.34 0.41 0.46
0.10 0.13 0.18 0.25 0.25 0.15 0.10 0.10 0.07 0.04 0.02 0.01 0.01 0.00 0.00 0.00 0.00 0.00 0.00 0.00 0.01 0.01 0.01 0.01 0.01 0.01 0.00 0.00 0.00 0.00 0.01 0.01 0.01 0.01 0.01 0.02 0.04 0.05 0.08 0.14 0.22 0.26 0.34 0.36
0.07 0.11 0.17 0.24 0.23 0.17 0.08 0.07 0.05 0.03 0.02 0.01 0.01 0.00 0.00 0.00 0.00 0.00 0.00 0.00 0.01 0.01 0.01 0.01 0.01 0.01 0.00 0.00 0.00 0.01 0.03 0.02 0.04 0.06 0.03 0.02 0.03 0.06 0.08 0.11 0.12 0.12 0.16 0.16

GEFSCGP_prec_meanprecacc_072.txt.gz
Total_Precipitation_Accumulation
0.13 0.33 0.50 0.42 0.34 0.29 0.24 0.21 0.16 0.11 0.11 0.09 0.09 0.11 0.12 0.14 0.15 0.14 0.12 0.12 0.11 0.09 0.09 0.08 0.09 0.13 0.20 0.28 0.37 0.54 0.87 1.29 1.46 1.36 1.35 1.44 1.54 1.52 1.41 1.36 1.32 1.33 1.30 1.26
0.08 0.18 0.18 0.14 0.16 0.20 0.23 0.25 0.22 0.15 0.11 0.09 0.07 0.07 0.08 0.09 0.11 0.12 0.12 0.13 0.13 0.10 0.08 0.06 0.07 0.11 0.17 0.32 0.46 0.59 0.84 1.27 1.47 1.58 1.69 1.90 2.10 2.01 1.86 1.81 1.75 1.79 1.74 1.85
0.04 0.05 0.05 0.09 0.16 0.24 0.27 0.29 0.25 0.20 0.12 0.09 0.07 0.05 0.05 0.07 0.07 0.08 0.11 0.13 0.14 0.12 0.11 0.10 0.10 0.13 0.17 0.27 0.38 0.52 0.69 0.97 1.29 1.56 1.83 2.14 2.37 2.34 2.21 2.04 2.01 2.04 2.05 2.13
0.02 0.02 0.04 0.07 0.10 0.14 0.21 0.15 0.11 0.09 0.09 0.09 0.07 0.09 0.06 0.09 0.11 0.12 0.12 0.13 0.15 0.15 0.14 0.16 0.15 0.15 0.17 0.23 0.29 0.41 0.59 0.84 1.08 1.33 1.73 2.17 2.47 2.57 2.48 2.34 2.25 2.21 2.20 2.20
0.00 0.01 0.02 0.04 0.06 0.09 0.10 0.06 0.06 0.07 0.08 0.07 0.06 0.08 0.08 0.11 0.15 0.15 0.15 0.15 0.16 0.15 0.17 0.20 0.19 0.21 0.22 0.21 0.25 0.36 0.52 0.75 0.99 1.22 1.56 1.97 2.22 2.42 2.57 2.38 2.22 2.23 2.20 2.15
0.00 0.00 0.00 0.01 0.02 0.04 0.05 0.06 0.05 0.05 0.07 0.07 0.05 0.10 0.17 0.17 0.16 0.15 0.14 0.15 0.17 0.19 0.24 0.27 0.34 0.38 0.37 0.31 0.35 0.44 0.52 0.65 0.82 0.96 1.18 1.42 1.72 1.95 2.30 2.27 2.17 2.25 2.17 1.96
0.00 0.00 0.00 0.00 0.01 0.02 0.03 0.08 0.12 0.12 0.13 0.10 0.07 0.17 0.29 0.25 0.19 0.18 0.18 0.18 0.20 0.22 0.25 0.33 0.46 0.49 0.50 0.45 0.42 0.44 0.54 0.59 0.64 0.74 0.85 0.99 1.20 1.36 1.70 2.00 1.99 1.88 1.86 1.76
0.00 0.00 0.00 0.00 0.01 0.04 0.04 0.09 0.17 0.19 0.19 0.18 0.19 0.34 0.42 0.31 0.23 0.20 0.19 0.20 0.23 0.27 0.34 0.49 0.65 0.67 0.66 0.59 0.52 0.51 0.59 0.61 0.62 0.66 0.67 0.73 0.81 0.92 1.05 1.23 1.36 1.37 1.36 1.45
0.01 0.01 0.00 0.00 0.01 0.03 0.07 0.10 0.13 0.20 0.18 0.20 0.29 0.45 0.42 0.27 0.25 0.27 0.27 0.28 0.37 0.46 0.54 0.67 0.81 0.83 0.75 0.69 0.61 0.59 0.63 0.70 0.69 0.68 0.68 0.72 0.76 0.78 0.86 0.87 0.97 1.12 1.11 1.09
0.04 0.02 0.01 0.01 0.02 0.03 0.06 0.10 0.17 0.28 0.33 0.30 0.33 0.45 0.47 0.37 0.37 0.37 0.41 0.44 0.54 0.66 0.74 0.82 0.95 0.96 0.82 0.71 0.61 0.58 0.60 0.71 0.88 0.99 0.93 0.84 0.89 0.96 1.16 1.16 0.96 0.93 1.02 1.02
0.17 0.13 0.04 0.04 0.06 0.10 0.14 0.21 0.27 0.35 0.38 0.48 0.58 0.63 0.58 0.57 0.57 0.59 0.62 0.65 0.73 0.86 0.86 0.84 0.91 0.98 0.87 0.68 0.60 0.55 0.55 0.66 0.79 0.82 0.87 0.84 0.85 0.93 1.18 1.37 1.27 1.05 0.98 0.97
0.22 0.28 0.15 0.09 0.13 0.17 0.23 0.34 0.50 0.69 0.66 0.62 0.75 0.79 0.64 0.58 0.62 0.64 0.64 0.63 0.67 0.79 0.80 0.81 0.83 0.80 0.70 0.56 0.49 0.46 0.47 0.56 0.65 0.63 0.70 0.75 0.74 0.82 0.93 0.99 0.97 0.86 0.74 0.70
0.33 0.46 0.38 0.26 0.32 0.32 0.41 0.45 0.51 0.63 0.71 0.72 0.80 0.83 0.61 0.53 0.49 0.52 0.55 0.58 0.60 0.60 0.60 0.59 0.60 0.57 0.54 0.53 0.50 0.45 0.45 0.52 0.57 0.58 0.64 0.71 0.71 0.71 0.70 0.67 0.59 0.60 0.60 0.59
0.33 0.42 0.47 0.47 0.53 0.59 0.59 0.50 0.45 0.60 0.78 0.73 0.74 0.73 0.60 0.53 0.49 0.52 0.53 0.54 0.57 0.50 0.44 0.43 0.46 0.46 0.48 0.49 0.49 0.45 0.43 0.50 0.58 0.72 0.79 0.82 0.82 0.78 0.74 0.70 0.62 0.60 0.61 0.63
0.22 0.25 0.26 0.25 0.27 0.39 0.44 0.38 0.38 0.45 0.51 0.66 0.65 0.64 0.52 0.49 0.53 0.56 0.54 0.49 0.45 0.39 0.34 0.35 0.35 0.38 0.37 0.38 0.40 0.40 0.38 0.43 0.51 0.64 0.75 0.80 0.81 0.80 0.75 0.67 0.61 0.61 0.57 0.54
0.15 0.19 0.18 0.16 0.18 0.25 0.32 0.34 0.35 0.35 0.40 0.50 0.57 0.55 0.43 0.39 0.38 0.38 0.36 0.31 0.29 0.29 0.26 0.24 0.25 0.26 0.25 0.24 0.24 0.26 0.32 0.41 0.47 0.54 0.63 0.78 0.83 0.75 0.70 0.61 0.57 0.58 0.54 0.50
0.13 0.23 0.30 0.25 0.21 0.23 0.48 0.51 0.51 0.52 0.46 0.45 0.40 0.32 0.21 0.20 0.23 0.26 0.26 0.26 0.29 0.25 0.20 0.18 0.19 0.20 0.21 0.22 0.25 0.28 0.34 0.43 0.44 0.48 0.59 0.78 0.78 0.67 0.62 0.66 0.67 0.61 0.58 0.58
0.10 0.22 0.32 0.27 0.29 0.57 0.82 0.61 0.58 0.52 0.31 0.17 0.13 0.12 0.12 0.17 0.17 0.15 0.16 0.19 0.22 0.19 0.15 0.13 0.13 0.13 0.14 0.17 0.21 0.24 0.28 0.31 0.35 0.40 0.49 0.63 0.65 0.63 0.66 0.66 0.63 0.56 0.52 0.51
0.12 0.23 0.33 0.29 0.33 0.60 0.64 0.41 0.33 0.33 0.21 0.07 0.06 0.08 0.10 0.12 0.11 0.09 0.09 0.10 0.11 0.11 0.07 0.06 0.06 0.05 0.05 0.06 0.07 0.10 0.13 0.16 0.20 0.27 0.35 0.44 0.47 0.51 0.54 0.54 0.54 0.50 0.44 0.44
0.25 0.30 0.43 0.44 0.54 0.58 0.31 0.16 0.15 0.22 0.26 0.06 0.03 0.04 0.04 0.06 0.09 0.06 0.04 0.05 0.05 0.05 0.04 0.03 0.02 0.01 0.01 0.01 0.01 0.03 0.06 0.09 0.13 0.19 0.25 0.33 0.36 0.40 0.42 0.47 0.50 0.49 0.45 0.41
0.22 0.30 0.38 0.46 0.65 0.54 0.21 0.11 0.11 0.21 0.27 0.08 0.03 0.02 0.02 0.02 0.04 0.02 0.03 0.04 0.04 0.03 0.03 0.01 0.01 0.00 0.00 0.01 0.01 0.02 0.05 0.07 0.08 0.11 0.15 0.22 0.30 0.37 0.45 0.50 0.51 0.53 0.49 0.44
0.24 0.26 0.28 0.38 0.54 0.49 0.20 0.15 0.18 0.17 0.08 0.03 0.02 0.01 0.01 0.01 0.01 0.01 0.02 0.02 0.03 0.03 0.02 0.01 0.01 0.00 0.00 0.01 0.01 0.01 0.02 0.03 0.04 0.06 0.11 0.18 0.26 0.33 0.41 0.50 0.52 0.52 0.52 0.51
0.27 0.30 0.32 0.43 0.57 0.38 0.23 0.20 0.19 0.12 0.06 0.02 0.01 0.01 0.00 0.00 0.00 0.00 0.01 0.02 0.02 0.03 0.02 0.01 0.01 0.01 0.00 0.01 0.01 0.00 0.00 0.00 0.01 0.02 0.06 0.11 0.15 0.19 0.24 0.32 0.39 0.45 0.49 0.51
0.15 0.17 0.23 0.32 0.32 0.20 0.18 0.16 0.12 0.07 0.04 0.02 0.01 0.00 0.00 0.00 0.00 0.00 0.01 0.01 0.02 0.02 0.01 0.01 0.01 0.01 0.01 0.00 0.00 0.00 0.00 0.00 0.00 0.01 0.03 0.05 0.06 0.07 0.10 0.19 0.27 0.34 0.41 0.46
0.10 0.13 0.18 0.25 0.25 0.15 0.10 0.10 0.07 0.04 0.02 0.01 0.01 0.00 0.00 0.00 0.00 0.00 0.00 0.00 0.01 0.01 0.01 0.01 0.01 0.01 0.00 0.00 0.00 0.00 0.01 0.01 0.01 0.01 0.01 0.02 0.04 0.05 0.08 0.14 0.22 0.27 0.34 0.36
0.07 0.11 0.17 0.24 0.23 0.17 0.08 0.07 0.05 0.03 0.02 0.01 0.01 0.00 0.00 0.00 0.00 0.00 0.00 0.00 0.01 0.01 0.01 0.01 0.01 0.01 0.00 0.00 0.00 0.01 0.03 0.02 0.04 0.06 0.03 0.02 0.03 0.06 0.08 0.11 0.13 0.12 0.16 0.16

GEFSCGP_prec_meanprecacc_078.txt.gz
Total_Precipitation_Accumulation
0.13 0.33 0.50 0.43 0.35 0.29 0.24 0.21 0.17 0.12 0.11 0.09 0.09 0.11 0.12 0.14 0.15 0.14 0.12 0.12 0.11 0.09 0.09 0.09 0.09 0.13 0.20 0.29 0.37 0.54 0.88 1.30 1.48 1.38 1.37 1.46 1.57 1.57 1.48 1.45 1.42 1.46 1.44 1.41
0.08 0.18 0.18 0.14 0.16 0.20 0.23 0.26 0.22 0.15 0.11 0.09 0.07 0.07 0.08 0.09 0.11 0.12 0.12 0.13 0.13 0.10 0.08 0.06 0.08 0.11 0.17 0.32 0.46 0.59 0.85 1.28 1.48 1.60 1.72 1.94 2.14 2.05 1.93 1.90 1.85 1.91 1.89 2.04
0.04 0.06 0.05 0.09 0.16 0.24 0.27 0.29 0.25 0.20 0.12 0.09 0.07 0.06 0.06 0.07 0.08 0.08 0.11 0.13 0.14 0.12 0.11 0.11 0.10 0.14 0.18 0.27 0.39 0.53 0.70 0.99 1.31 1.58 1.87 2.19 2.42 2.41 2.30 2.13 2.10 2.13 2.16 2.29
0.02 0.03 0.04 0.07 0.10 0.14 0.21 0.15 0.11 0.09 0.10 0.09 0.07 0.10 0.08 0.10 0.12 0.12 0.13 0.13 0.15 0.15 0.14 0.16 0.16 0.16 0.18 0.23 0.30 0.42 0.61 0.86 1.10 1.35 1.77 2.23 2.53 2.64 2.56 2.44 2.37 2.32 2.32 2.34
0.00 0.01 0.02 0.04 0.06 0.09 0.10 0.06 0.06 0.07 0.08 0.07 0.06 0.09 0.10 0.11 0.16 0.16 0.16 0.16 0.16 0.16 0.17 0.20 0.20 0.22 0.23 0.21 0.25 0.38 0.54 0.77 1.01 1.24 1.60 2.02 2.30 2.51 2.68 2.50 2.36 2.36 2.33 2.30
0.00 0.00 0.00 0.01 0.02 0.04 0.05 0.06 0.05 0.05 0.07 0.07 0.05 0.11 0.19 0.18 0.16 0.15 0.14 0.15 0.17 0.19 0.24 0.27 0.35 0.39 0.38 0.32 0.35 0.45 0.53 0.67 0.84 0.98 1.21 1.45 1.78 2.03 2.38 2.37 2.29 2.39 2.31 2.12
0.00 0.00 0.00 0.00 0.01 0.02 0.03 0.08 0.12 0.12 0.13 0.11 0.08 0.17 0.29 0.25 0.19 0.18 0.18 0.18 0.20 0.22 0.26 0.34 0.47 0.51 0.52 0.46 0.43 0.45 0.55 0.60 0.66 0.77 0.89 1.04 1.28 1.44 1.79 2.09 2.09 2.00 1.99 1.90
0.00 0.00 0.00 0.00 0.01 0.04 0.04 0.09 0.17 0.19 0.19 0.19 0.19 0.34 0.42 0.31 0.23 0.21 0.19 0.20 0.23 0.27 0.34 0.50 0.65 0.68 0.67 0.60 0.53 0.52 0.60 0.63 0.64 0.69 0.71 0.80 0.94 1.03 1.17 1.33 1.46 1.50 1.51 1.61
0.01 0.01 0.00 0.00 0.01 0.03 0.07 0.10 0.13 0.20 0.18 0.20 0.30 0.46 0.43 0.27 0.25 0.27 0.27 0.28 0.37 0.47 0.55 0.67 0.81 0.83 0.75 0.69 0.61 0.59 0.64 0.72 0.72 0.71 0.72 0.80 0.86 0.87 0.96 0.97 1.07 1.24 1.25 1.24
0.04 0.02 0.01 0.01 0.02 0.03 0.06 0.10 0.17 0.28 0.33 0.31 0.33 0.45 0.47 0.37 0.37 0.37 0.42 0.44 0.55 0.66 0.74 0.82 0.95 0.96 0.83 0.71 0.61 0.59 0.61 0.72 0.90 1.02 0.97 0.90 0.96 1.03 1.24 1.26 1.07 1.04 1.16 1.17
0.17 0.13 0.04 0.04 0.06 0.10 0.14 0.21 0.27 0.35 0.38 0.49 0.58 0.63 0.58 0.57 0.58 0.59 0.62 0.65 0.74 0.86 0.87 0.84 0.91 0.98 0.87 0.68 0.60 0.56 0.56 0.67 0.82 0.86 0.91 0.89 0.91 0.99 1.27 1.48 1.38 1.19 1.14 1.13
0.22 0.28 0.15 0.09 0.13 0.17 0.23 0.34 0.50 0.69 0.66 0.62 0.75 0.79 0.64 0.58 0.62 0.64 0.64 0.63 0.67 0.79 0.80 0.81 0.83 0.80 0.70 0.56 0.49 0.46 0.48 0.59 0.70 0.69 0.74 0.80 0.79 0.87 0.99 1.08 1.08 0.98 0.88 0.85
0.33 0.46 0.38 0.26 0.32 0.32 0.41 0.45 0.51 0.63 0.71 0.72 0.80 0.83 0.61 0.53 0.49 0.52 0.55 0.58 0.60 0.60 0.60 0.59 0.60 0.57 0.55 0.53 0.50 0.45 0.47 0.53 0.60 0.62 0.67 0.74 0.75 0.75 0.75 0.75 0.68 0.69 0.70 0.72
0.33 0.42 0.47 0.47 0.53 0.59 0.59 0.50 0.45 0.60 0.78 0.73 0.74 0.73 0.60 0.53 0.49 0.52 0.53 0.54 0.57 0.50 0.44 0.44 0.46 0.47 0.49 0.49 0.49 0.46 0.43 0.50 0.60 0.74 0.80 0.84 0.84 0.81 0.79 0.76 0.70 0.67 0.67 0.72
0.22 0.25 0.26 0.25 0.27 0.39 0.44 0.38 0.38 0.45 0.51 0.66 0.65 0.64 0.52 0.49 0.53 0.56 0.54 0.49 0.45 0.39 0.34 0.35 0.35 0.38 0.37 0.38 0.40 0.40 0.38 0.44 0.51 0.65 0.76 0.81 0.83 0.83 0.79 0.70 0.66 0.68 0.63 0.60
0.15 0.19 0.18 0.16 0.18 0.25 0.32 0.34 0.35 0.35 0.40 0.50 0.57 0.55 0.43 0.39 0.38 0.38 0.36 0.31 0.29 0.29 0.26 0.24 0.25 0.26 0.26 0.24 0.24 0.26 0.33 0.41 0.47 0.54 0.64 0.79 0.85 0.77 0.72 0.65 0.63 0.64 0.60 0.55
0.13 0.23 0.30 0.25 0.21 0.23 0.48 0.51 0.51 0.52 0.46 0.45 0.40 0.32 0.21 0.20 0.23 0.26 0.26 0.26 0.29 0.25 0.20 0.18 0.19 0.20 0.21 0.22 0.25 0.28 0.34 0.44 0.44 0.48 0.60 0.78 0.79 0.68 0.63 0.68 0.71 0.66 0.62 0.62
0.10 0.22 0.32 0.27 0.29 0.57 0.82 0.61 0.58 0.52 0.31 0.17 0.13 0.12 0.12 0.17 0.17 0.15 0.16 0.19 0.22 0.19 0.15 0.13 0.13 0.13 0.14 0.17 0.21 0.24 0.28 0.32 0.35 0.40 0.49 0.64 0.66 0.64 0.67 0.68 0.66 0.60 0.55 0.52
0.12 0.23 0.33 0.29 0.33 0.60 0.64 0.41 0.33 0.33 0.21 0.07 0.06 0.08 0.10 0.12 0.11 0.09 0.09 0.10 0.11 0.11 0.07 0.06 0.06 0.05 0.05 0.06 0.07 0.10 0.13 0.16 0.20 0.27 0.36 0.45 0.48 0.53 0.55 0.55 0.56 0.52 0.47 0.46
0.25 0.30 0.43 0.44 0.54 0.58 0.31 0.16 0.15 0.22 0.26 0.06 0.03 0.04 0.04 0.06 0.09 0.06 0.04 0.05 0.05 0.05 0.04 0.03 0.02 0.01 0.01 0.01 0.02 0.03 0.06 0.09 0.14 0.20 0.26 0.34 0.37 0.41 0.43 0.48 0.51 0.51 0.47 0.43
0.22 0.30 0.38 0.46 0.65 0.54 0.21 0.11 0.11 0.21 0.27 0.08 0.03 0.02 0.02 0.02 0.04 0.02 0.03 0.04 0.04 0.03 0.03 0.01 0.01 0.00 0.00 0.01 0.01 0.02 0.05 0.07 0.08 0.11 0.16 0.22 0.30 0.37 0.45 0.51 0.52 0.54 0.51 0.46
0.24 0.26 0.28 0.38 0.54 0.49 0.20 0.15 0.18 0.17 0.08 0.03 0.02 0.01 0.01 0.01 0.01 0.01 0.02 0.02 0.03 0.03 0.02 0.01 0.01 0.00 0.00 0.01 0.01 0.01 0.02 0.03 0.04 0.06 0.11 0.18 0.26 0.33 0.41 0.51 0.54 0.53 0.53 0.52
0.27 0.30 0.32 0.43 0.57 0.38 0.23 0.20 0.19 0.12 0.06 0.02 0.01 0.01 0.00 0.00 0.00 0.00 0.01 0.02 0.02 0.03 0.02 0.01 0.01 0.01 0.00 0.01 0.01 0.00 0.00 0.00 0.01 0.02 0.06 0.11 0.15 0.19 0.25 0.32 0.41 0.47 0.51 0.52
0.15 0.17 0.23 0.32 0.32 0.20 0.18 0.16 0.12 0.07 0.04 0.02 0.01 0.00 0.00 0.00 0.00 0.00 0.01 0.01 0.02 0.02 0.01 0.01 0.01 0.01 0.01 0.00 0.00 0.00 0.00 0.00 0.00 0.01 0.03 0.05 0.06 0.07 0.10 0.20 0.28 0.35 0.42 0.47
0.10 0.13 0.18 0.25 0.25 0.15 0.10 0.10 0.07 0.04 0.02 0.01 0.01 0.00 0.00 0.00 0.00 0.00 0.00 0.00 0.01 0.01 0.01 0.01 0.01 0.01 0.00 0.00 0.00 0.00 0.01 0.01 0.01 0.01 0.01 0.02 0.04 0.06 0.08 0.14 0.22 0.27 0.34 0.37
0.07 0.11 0.17 0.24 0.23 0.17 0.08 0.07 0.05 0.03 0.02 0.01 0.01 0.00 0.00 0.00 0.00 0.00 0.00 0.00 0.01 0.01 0.01 0.01 0.01 0.01 0.00 0.00 0.00 0.01 0.03 0.02 0.04 0.06 0.03 0.02 0.03 0.06 0.08 0.11 0.13 0.13 0.16 0.16

GEFSCGP_prec_meanprecacc_084.txt.gz
Total_Precipitation_Accumulation
0.13 0.33 0.51 0.43 0.36 0.31 0.25 0.21 0.17 0.12 0.12 0.10 0.10 0.11 0.12 0.15 0.16 0.14 0.12 0.12 0.11 0.09 0.09 0.09 0.09 0.13 0.20 0.29 0.37 0.54 0.88 1.30 1.48 1.39 1.37 1.46 1.57 1.57 1.48 1.46 1.43 1.48 1.48 1.47
0.08 0.18 0.18 0.15 0.17 0.21 0.24 0.26 0.22 0.15 0.11 0.09 0.07 0.07 0.08 0.10 0.12 0.12 0.12 0.13 0.13 0.10 0.08 0.06 0.08 0.11 0.17 0.32 0.47 0.59 0.85 1.28 1.48 1.60 1.72 1.94 2.14 2.05 1.93 1.90 1.86 1.92 1.93 2.08
0.05 0.06 0.05 0.09 0.16 0.24 0.27 0.29 0.25 0.20 0.12 0.09 0.07 0.06 0.07 0.09 0.09 0.09 0.11 0.13 0.14 0.12 0.11 0.11 0.10 0.14 0.18 0.27 0.39 0.53 0.70 0.99 1.31 1.58 1.87 2.19 2.43 2.41 2.30 2.13 2.10 2.14 2.19 2.33
0.04 0.03 0.04 0.07 0.10 0.14 0.21 0.15 0.11 0.09 0.10 0.09 0.07 0.10 0.10 0.12 0.12 0.12 0.13 0.13 0.15 0.15 0.14 0.16 0.16 0.16 0.18 0.23 0.30 0.43 0.61 0.86 1.11 1.35 1.77 2.23 2.54 2.65 2.57 2.45 2.38 2.34 2.36 2.39
0.01 0.01 0.02 0.04 0.06 0.09 0.10 0.06 0.06 0.07 0.08 0.07 0.06 0.09 0.12 0.13 0.16 0.16 0.16 0.16 0.16 0.16 0.17 0.20 0.20 0.22 0.24 0.22 0.26 0.38 0.54 0.77 1.01 1.24 1.61 2.03 2.32 2.53 2.69 2.51 2.38 2.39 2.41 2.39
0.00 0.00 0.00 0.01 0.02 0.04 0.05 0.06 0.05 0.05 0.07 0.07 0.05 0.11 0.19 0.18 0.17 0.15 0.14 0.15 0.17 0.19 0.24 0.27 0.35 0.39 0.39 0.33 0.36 0.45 0.53 0.67 0.84 0.98 1.22 1.46 1.80 2.06 2.41 2.39 2.32 2.43 2.40 2.22
0.00 0.00 0.00 0.00 0.01 0.02 0.03 0.08 0.12 0.12 0.13 0.11 0.08 0.18 0.29 0.25 0.19 0.18 0.18 0.18 0.20 0.22 0.26 0.34 0.47 0.51 0.53 0.46 0.43 0.45 0.55 0.60 0.66 0.77 0.89 1.05 1.31 1.47 1.82 2.13 2.13 2.04 2.04 1.98
0.00 0.00 0.00 0.00 0.01 0.04 0.04 0.09 0.17 0.19 0.19 0.19 0.19 0.34 0.42 0.31 0.23 0.21 0.19 0.20 0.23 0.27 0.34 0.50 0.65 0.68 0.68 0.60 0.53 0.52 0.60 0.63 0.64 0.70 0.71 0.81 0.97 1.07 1.21 1.39 1.53 1.56 1.57 1.70
0.01 0.01 0.00 0.00 0.01 0.03 0.07 0.10 0.13 0.20 0.18 0.20 0.30 0.46 0.43 0.27 0.25 0.27 0.27 0.28 0.37 0.47 0.55 0.67 0.81 0.83 0.75 0.69 0.61 0.60 0.64 0.72 0.72 0.72 0.73 0.82 0.87 0.90 1.00 1.01 1.13 1.31 1.32 1.32
0.04 0.02 0.01 0.01 0.02 0.03 0.06 0.10 0.17 0.28 0.33 0.31 0.33 0.45 0.47 0.37 0.37 0.37 0.42 0.44 0.55 0.66 0.74 0.82 0.95 0.97 0.83 0.71 0.61 0.59 0.61 0.73 0.91 1.03 0.98 0.92 0.98 1.05 1.27 1.29 1.11 1.09 1.23 1.24
0.17 0.13 0.04 0.04 0.06 0.10 0.14 0.21 0.27 0.35 0.38 0.49 0.58 0.63 0.58 0.57 0.58 0.59 0.62 0.65 0.74 0.86 0.87 0.84 0.91 0.98 0.87 0.68 0.61 0.56 0.56 0.67 0.82 0.86 0.92 0.91 0.94 1.04 1.32 1.53 1.45 1.25 1.20 1.19
0.22 0.28 0.15 0.09 0.13 0.17 0.23 0.34 0.50 0.69 0.66 0.62 0.75 0.79 0.64 0.58 0.62 0.64 0.64 0.63 0.67 0.79 0.80 0.81 0.83 0.80 0.70 0.56 0.49 0.47 0.48 0.59 0.71 0.70 0.76 0.82 0.82 0.91 1.04 1.15 1.15 1.06 0.95 0.90
0.33 0.46 0.38 0.26 0.32 0.32 0.41 0.45 0.51 0.63 0.71 0.72 0.80 0.83 0.61 0.53 0.49 0.52 0.55 0.58 0.60 0.60 0.60 0.59 0.60 0.57 0.55 0.53 0.50 0.45 0.47 0.54 0.60 0.63 0.68 0.75 0.76 0.77 0.78 0.79 0.72 0.73 0.74 0.78
0.33 0.42 0.47 0.47 0.53 0.59 0.59 0.50 0.45 0.60 0.78 0.73 0.74 0.73 0.60 0.53 0.49 0.52 0.53 0.54 0.57 0.50 0.44 0.44 0.46 0.47 0.49 0.49 0.49 0.46 0.43 0.50 0.60 0.74 0.80 0.84 0.84 0.83 0.81 0.79 0.75 0.72 0.72 0.78
0.22 0.25 0.26 0.25 0.27 0.39 0.44 0.38 0.38 0.45 0.51 0.66 0.65 0.64 0.52 0.49 0.53 0.56 0.54 0.49 0.45 0.39 0.34 0.35 0.35 0.38 0.37 0.38 0.40 0.40 0.38 0.44 0.51 0.65 0.76 0.81 0.84 0.84 0.80 0.72 0.69 0.72 0.67 0.64
0.15 0.19 0.18 0.16 0.18 0.25 0.32 0.34 0.35 0.35 0.40 0.50 0.57 0.55 0.43 0.39 0.38 0.38 0.36 0.31 0.29 0.29 0.26 0.24 0.25 0.26 0.26 0.24 0.24 0.26 0.33 0.41 0.47 0.54 0.64 0.80 0.85 0.79 0.74 0.66 0.64 0.66 0.63 0.58
0.13 0.23 0.30 0.25 0.21 0.23 0.48 0.51 0.51 0.52 0.46 0.45 0.40 0.32 0.21 0.20 0.23 0.26 0.26 0.26 0.29 0.25 0.20 0.18 0.19 0.20 0.21 0.22 0.25 0.28 0.34 0.44 0.44 0.48 0.60 0.79 0.80 0.69 0.64 0.69 0.73 0.67 0.64 0.64
0.10 0.22 0.32 0.27 0.29 0.57 0.82 0.61 0.58 0.52 0.31 0.17 0.13 0.12 0.12 0.17 0.17 0.15 0.16 0.19 0.22 0.19 0.15 0.13 0.13 0.13 0.14 0.17 0.21 0.24 0.28 0.32 0.35 0.41 0.50 0.65 0.67 0.66 0.69 0.69 0.66 0.61 0.56 0.53
0.12 0.23 0.33 0.29 0.33 0.60 0.64 0.41 0.33 0.33 0.21 0.07 0.06 0.08 0.10 0.12 0.11 0.09 0.09 0.10 0.11 0.11 0.07 0.06 0.06 0.05 0.05 0.06 0.07 0.11 0.13 0.16 0.21 0.28 0.36 0.46 0.49 0.54 0.56 0.55 0.56 0.52 0.47 0.47
0.25 0.30 0.43 0.44 0.54 0.58 0.31 0.16 0.15 0.22 0.26 0.06 0.03 0.04 0.04 0.06 0.09 0.06 0.04 0.05 0.05 0.05 0.04 0.03 0.02 0.01 0.01 0.01 0.02 0.04 0.06 0.10 0.14 0.20 0.27 0.34 0.37 0.41 0.43 0.48 0.51 0.51 0.47 0.44
0.22 0.30 0.38 0.46 0.65 0.54 0.21 0.11 0.11 0.21 0.27 0.08 0.03 0.02 0.02 0.02 0.04 0.02 0.03 0.04 0.04 0.03 0.03 0.01 0.01 0.00 0.00 0.01 0.01 0.02 0.05 0.07 0.08 0.11 0.16 0.23 0.30 0.37 0.45 0.51 0.52 0.55 0.52 0.47
0.24 0.26 0.28 0.38 0.54 0.49 0.20 0.15 0.18 0.17 0.08 0.03 0.02 0.01 0.01 0.01 0.01 0.01 0.02 0.02 0.03 0.03 0.02 0.01 0.01 0.00 0.00 0.01 0.01 0.01 0.02 0.03 0.04 0.06 0.11 0.18 0.26 0.33 0.41 0.51 0.54 0.54 0.54 0.53
0.27 0.30 0.32 0.43 0.57 0.38 0.23 0.20 0.19 0.12 0.06 0.02 0.01 0.01 0.00 0.00 0.00 0.00 0.01 0.02 0.02 0.03 0.02 0.01 0.01 0.01 0.00 0.01 0.01 0.00 0.00 0.00 0.01 0.02 0.06 0.11 0.15 0.19 0.25 0.32 0.41 0.47 0.51 0.53
0.15 0.17 0.23 0.32 0.32 0.20 0.18 0.16 0.12 0.07 0.04 0.02 0.01 0.00 0.00 0.00 0.00 0.00 0.01 0.01 0.02 0.02 0.01 0.01 0.01 0.01 0.01 0.00 0.00 0.00 0.00 0.00 0.00 0.01 0.03 0.05 0.06 0.07 0.10 0.20 0.28 0.35 0.42 0.47
0.10 0.13 0.18 0.25 0.25 0.15 0.10 0.10 0.07 0.04 0.02 0.01 0.01 0.00 0.00 0.00 0.00 0.00 0.00 0.00 0.01 0.01 0.01 0.01 0.01 0.01 0.00 0.00 0.00 0.00 0.01 0.01 0.01 0.01 0.01 0.02 0.04 0.06 0.08 0.14 0.22 0.27 0.34 0.37
0.07 0.11 0.17 0.24 0.23 0.17 0.08 0.07 0.05 0.03 0.02 0.01 0.01 0.00 0.00 0.00 0.00 0.00 0.00 0.00 0.01 0.01 0.01 0.01 0.01 0.01 0.00 0.00 0.00 0.01 0.03 0.02 0.04 0.06 0.03 0.02 0.03 0.06 0.08 0.11 0.13 0.13 0.16 0.16